GEFSNGP_500_meanwind_168.txt.gz
Wind_Speed
10 10 10 11 11 12 14 14 13 12 10 10 10 11 12 12 12 11 12 13 14 15 15 14 15 15 15 16 15 15 14 14 13 12 11 12 11 11 11 11 11 11 9 9
11 12 12 12 12 13 14 14 13 13 12 11 11 11 12 11 12 12 12 13 14 14 14 15 15 15 15 16 16 16 15 14 13 13 12 12 12 12 12 12 12 12 11 10
12 12 12 11 11 12 13 13 13 12 11 12 12 12 12 11 12 13 13 14 15 16 16 15 15 15 15 16 16 16 16 15 15 14 14 14 13 14 14 14 14 13 12 12
13 13 12 10 12 11 12 11 12 12 11 12 12 12 13 12 12 13 14 15 16 17 17 17 17 16 16 16 16 17 17 17 16 16 16 15 15 15 15 15 15 14 14 14
13 13 12 12 11 12 12 11 11 12 12 12 12 12 12 12 12 13 13 14 15 17 17 17 17 17 17 17 17 16 16 17 17 17 17 17 17 17 17 17 17 16 16 16
14 14 14 13 13 13 13 12 11 11 12 12 12 12 12 12 12 12 13 13 14 16 17 18 17 17 17 17 17 17 17 18 18 18 18 18 18 17 17 17 17 17 17 17
16 16 14 14 15 14 14 12 12 11 12 12 12 12 13 13 13 12 12 13 14 15 16 18 18 18 18 18 18 18 18 19 19 19 19 18 18 18 18 18 18 18 19 19
17 16 15 15 15 15 14 14 13 13 13 13 13 13 14 13 14 14 14 14 14 15 16 17 18 18 19 18 18 19 19 19 19 19 19 19 19 20 20 20 20 20 21 22
18 17 16 17 17 16 16 15 14 13 13 14 14 14 14 14 14 15 15 15 15 15 16 17 17 18 19 19 19 18 19 19 19 20 20 20 21 21 22 21 21 22 22 23
19 18 17 17 17 16 16 16 15 15 15 15 16 15 16 16 15 15 15 16 16 16 16 17 17 17 18 19 19 19 19 20 20 21 21 21 21 21 21 22 22 23 24 24
20 19 19 19 18 18 17 17 17 16 16 16 16 17 17 17 17 16 16 17 17 17 18 18 18 19 19 20 20 20 21 21 21 22 22 22 22 22 23 23 24 25 26 26
21 20 20 20 20 19 18 18 18 18 18 17 17 17 17 18 18 17 18 18 19 19 19 19 20 20 21 21 21 21 22 22 23 24 24 24 24 25 25 26 27 28 28 29
23 22 22 21 21 21 20 19 20 19 19 19 18 18 18 18 19 19 19 19 20 21 21 21 20 20 21 21 22 22 23 24 24 25 25 26 26 27 28 28 29 30 30 31
25 24 24 23 23 22 22 21 21 21 21 20 20 20 20 21 21 21 21 21 22 22 22 22 22 22 22 23 24 24 24 25 25 26 27 28 29 29 30 30 30 31 32 32
26 25 25 25 25 25 25 24 23 23 23 23 23 23 23 23 23 22 23 23 23 24 24 25 25 25 25 25 25 26 26 27 28 28 29 29 30 31 31 31 32 33 33 34
27 27 27 27 27 27 26 26 25 25 26 26 26 25 25 24 24 24 24 24 24 25 25 25 26 26 27 27 27 27 28 28 29 29 30 31 32 32 33 33 34 35 36 36
28 28 27 27 28 28 28 28 27 27 27 28 27 27 27 27 26 26 26 26 26 26 26 26 27 28 28 28 29 29 29 30 30 31 32 33 34 34 35 36 36 37 38 38
27 28 28 28 29 29 29 28 28 28 28 28 28 28 28 28 28 28 28 28 28 27 27 28 29 29 29 30 31 31 31 32 32 33 34 35 35 36 37 37 38 38 39 40
28 28 29 29 29 29 29 29 29 29 29 29 28 29 28 28 29 29 29 28 28 29 29 30 30 31 31 32 33 33 34 34 34 35 36 36 37 39 39 39 39 40 41 41
29 29 29 30 30 29 29 29 29 29 29 29 29 29 29 30 30 29 30 30 30 31 31 32 32 33 34 34 35 35 35 36 36 37 38 38 39 40 40 41 41 42 42 43
29 29 30 31 31 31 31 30 31 31 30 30 30 30 30 31 31 31 31 32 32 33 34 34 34 35 35 36 37 37 37 38 39 40 40 41 41 42 42 43 43 44 44 44
29 29 29 30 30 31 31 31 31 32 32 31 31 31 31 31 32 32 32 32 33 34 35 35 36 37 37 38 39 39 40 41 41 42 43 43 43 44 44 45 45 46 46 46
29 29 30 30 30 30 31 31 31 31 32 32 32 32 33 33 33 34 34 34 34 35 36 36 37 37 38 39 40 41 42 43 43 44 44 44 44 44 45 46 46 47 47 47
29 30 29 29 29 30 30 30 31 31 32 33 33 34 34 34 34 35 35 35 35 36 37 37 37 37 38 39 40 41 41 42 43 43 43 43 43 44 44 45 46 46 47 47
29 29 30 30 30 31 31 31 31 31 32 33 33 34 34 35 35 35 36 36 36 37 37 38 38 38 39 39 40 40 41 41 41 42 42 43 43 43 44 45 45 45 46 47
30 30 31 31 31 32 32 32 32 32 33 33 34 34 35 35 36 37 37 37 37 37 38 38 38 39 39 39 39 39 40 41 41 41 41 42 42 43 43 43 44 44 44 45
31 31 31 31 31 32 32 33 33 33 33 34 34 34 34 35 36 36 37 37 37 37 38 38 38 38 38 39 39 39 39 40 41 41 41 41 41 41 41 42 42 43 43 44

GEFSNGP_500_meanwind_174.txt.gz
Wind_Speed
10 11 11 10 10 10 10 9 9 9 10 11 13 14 15 15 15 15 15 15 16 17 18 18 18 18 17 16 16 16 17 16 16 15 14 13 13 13 12 12 12 11 11 11
11 12 12 11 11 10 10 9 9 9 9 11 12 13 14 15 15 16 16 16 16 16 17 18 19 19 18 18 17 16 16 17 17 16 15 15 15 14 14 14 14 13 12 12
12 13 12 11 11 12 11 10 10 10 10 11 12 13 14 14 15 16 16 16 16 16 16 17 17 18 19 19 18 17 17 17 17 17 17 16 16 16 16 16 15 15 14 13
13 13 13 11 12 12 13 12 12 11 11 12 12 14 15 15 15 16 16 16 16 16 16 16 17 17 18 19 19 18 18 18 18 18 17 17 17 17 17 17 17 16 15 15
15 14 13 12 12 13 13 12 12 12 12 12 13 13 14 15 14 15 16 16 16 16 16 16 17 18 18 19 18 18 17 17 18 18 17 17 18 18 18 18 17 17 17 17
15 15 13 12 13 13 13 13 13 12 12 13 13 13 13 15 15 15 16 15 16 17 16 16 17 18 18 18 18 18 18 18 18 18 19 19 19 19 19 18 18 19 19 19
16 15 13 13 13 13 14 13 13 13 13 13 12 12 13 14 15 15 15 16 16 16 16 16 17 18 18 18 19 19 19 19 19 19 20 20 20 21 21 20 21 21 21 21
17 15 14 14 13 13 13 14 14 14 14 14 13 13 14 14 15 15 16 16 17 17 17 17 17 17 18 19 19 20 20 21 20 20 21 21 21 22 22 22 22 22 22 22
16 16 15 15 15 14 14 15 15 15 15 15 15 14 15 15 15 16 16 17 17 17 17 17 17 18 19 20 20 21 22 22 22 22 23 22 22 22 23 23 23 23 23 23
17 16 17 17 17 16 16 15 15 15 15 15 15 15 16 16 17 17 17 17 17 18 18 18 18 19 20 21 22 22 23 24 24 24 23 23 23 23 23 23 23 24 24 24
18 17 18 18 18 18 18 17 16 16 15 15 15 16 17 17 17 17 18 18 18 19 19 19 20 20 20 21 22 23 23 24 24 24 24 24 24 24 23 24 24 25 26 25
20 19 19 18 19 19 19 19 17 16 16 17 17 17 17 17 17 17 17 18 19 19 19 19 19 20 20 21 22 23 24 24 24 24 24 24 25 25 25 26 27 27 27 27
21 20 20 21 21 21 20 20 19 17 17 17 18 18 19 19 19 19 18 19 20 20 20 20 21 21 21 22 23 24 24 25 25 25 25 26 26 27 27 28 28 28 28 28
23 22 21 22 22 22 22 21 21 20 19 19 18 19 19 20 20 20 20 21 21 21 22 22 23 23 23 24 24 24 25 26 26 26 27 27 28 28 29 29 29 30 30 30
26 25 24 23 24 24 23 23 23 22 21 21 21 20 20 21 21 21 22 22 22 22 22 22 23 23 24 24 24 25 25 25 26 26 27 28 28 29 30 30 31 31 31 32
27 26 25 25 25 26 25 25 25 24 23 23 23 23 23 23 23 22 22 22 23 23 23 23 23 23 24 25 25 25 26 27 27 28 28 29 30 30 30 31 31 32 32 33
28 27 26 26 26 26 26 26 26 25 25 25 24 24 24 24 24 24 24 23 23 23 24 24 24 24 24 25 26 26 27 28 28 28 29 30 31 31 31 31 32 33 34 35
28 28 27 26 26 26 27 27 26 26 25 25 25 25 25 25 25 25 25 25 25 25 25 25 26 26 27 27 28 28 29 29 30 30 31 31 32 33 33 34 34 36 37 37
28 28 27 26 26 25 26 26 26 27 27 27 27 26 27 27 26 26 26 27 27 27 28 28 28 29 29 30 30 30 30 31 31 32 33 34 35 35 36 36 37 38 38 39
28 28 28 28 28 27 27 27 27 27 27 28 28 28 28 28 28 28 28 29 29 29 29 30 30 31 31 31 31 31 32 33 34 34 35 36 37 37 38 39 40 40 40 40
28 29 29 29 29 29 29 28 28 28 28 28 28 28 28 29 29 29 29 29 30 30 31 31 32 32 32 33 33 33 33 34 35 36 36 37 38 38 39 40 40 41 41 42
28 29 29 29 29 29 29 29 29 29 29 29 29 29 29 30 30 30 31 31 32 32 32 32 33 33 34 34 34 35 35 36 36 37 38 39 40 40 41 41 41 42 43 44
29 29 29 29 29 29 29 29 29 29 29 30 31 31 31 31 31 32 32 33 33 33 33 33 34 34 34 34 35 35 36 36 37 38 39 39 40 41 41 42 42 42 43 43
29 29 29 29 29 30 30 30 30 30 31 31 31 32 32 33 33 33 33 34 33 34 34 35 35 35 35 35 36 37 37 37 38 39 40 41 41 41 42 42 42 43 43 44
29 29 30 30 30 31 31 31 32 32 32 32 32 32 33 34 34 34 34 34 35 35 35 36 36 36 36 37 37 37 38 39 39 40 40 40 41 41 42 42 42 42 43 43
29 30 30 31 31 31 31 31 32 32 33 33 33 33 33 34 34 34 34 34 35 35 36 36 37 37 37 37 37 38 39 39 39 39 39 40 41 41 41 42 42 42 42 42
30 30 30 31 31 31 31 31 31 32 32 32 33 33 33 34 35 35 35 35 35 36 36 36 37 38 38 38 38 38 38 38 38 38 39 39 40 40 40 40 40 41 41 41

GEFSNGP_500_meanwind_180.txt.gz
Wind_Speed
11 10 10 10 10 10 11 11 11 11 12 12 13 13 13 13 14 14 14 14 15 15 15 17 17 17 18 18 18 17 16 16 16 16 16 16 16 15 13 13 13 12 12 11
12 11 11 11 11 12 12 12 12 12 13 14 14 14 13 13 14 14 14 14 15 15 15 16 16 17 17 18 18 17 16 16 16 16 16 16 16 15 15 15 14 13 13 13
12 13 12 12 12 12 12 12 12 12 12 14 13 13 14 14 15 15 14 14 15 16 16 16 16 17 17 18 18 17 17 16 17 17 16 16 16 16 16 15 15 15 15 15
14 13 13 12 12 12 12 12 12 13 13 14 14 14 14 15 15 15 15 14 14 16 17 16 17 18 18 18 18 18 18 18 17 17 17 17 17 17 16 16 16 16 15 16
14 14 14 13 12 12 12 12 13 13 14 14 14 14 15 15 15 15 15 15 15 15 16 16 16 17 18 18 18 18 18 17 18 17 17 18 18 18 18 18 17 17 17 17
16 15 14 14 13 13 13 12 13 14 14 14 14 14 14 15 15 16 16 16 16 16 17 17 17 17 17 17 18 18 18 17 18 18 18 18 19 19 19 18 18 18 18 19
17 17 15 15 14 13 14 13 14 14 14 14 14 15 15 15 15 16 16 17 17 17 17 17 18 17 17 17 17 17 18 18 18 18 19 19 19 19 19 19 19 19 19 20
18 17 16 15 15 15 15 15 14 14 15 15 15 15 15 14 15 16 16 17 16 17 17 18 18 18 17 17 17 18 18 19 19 18 18 18 18 18 19 20 20 21 21 21
18 17 17 16 15 15 16 15 15 15 15 15 15 15 15 15 15 15 16 17 16 17 17 18 18 18 18 18 17 18 18 18 19 19 19 19 19 20 20 21 22 22 22 22
19 18 17 17 16 16 16 16 15 15 15 15 15 15 16 15 15 15 15 17 17 17 17 17 18 18 18 18 18 18 19 19 20 21 21 21 21 22 22 22 22 23 23 24
20 19 19 18 17 17 17 16 16 16 15 16 16 16 16 15 15 15 16 16 17 18 18 18 19 19 19 19 19 19 20 20 21 22 23 23 23 23 24 24 25 24 25 25
21 20 20 19 19 18 18 18 17 16 16 16 17 16 16 16 15 16 16 17 18 19 18 19 19 20 20 21 20 21 21 22 23 23 24 25 25 26 26 26 26 26 26 26
22 21 21 20 20 20 19 19 18 17 17 17 17 17 17 17 17 17 17 18 19 19 20 20 20 21 22 22 23 23 23 23 24 24 25 26 26 26 27 27 27 27 27 27
23 22 22 21 21 21 20 20 20 19 19 18 18 18 18 18 18 18 18 18 19 19 20 20 21 22 22 23 24 24 24 24 25 25 26 26 26 26 26 27 27 27 27 28
24 24 23 23 23 22 22 22 22 21 21 20 19 19 19 19 19 19 19 19 20 20 20 21 21 22 23 23 23 23 23 24 24 25 25 26 27 27 27 27 28 28 29 30
25 25 24 24 24 24 23 23 23 22 22 22 22 21 20 20 20 20 20 20 21 21 21 22 22 22 23 23 23 23 23 24 24 24 24 25 26 27 27 28 28 29 30 30
25 25 25 25 25 25 25 25 25 25 24 24 23 22 22 22 22 22 22 22 22 22 22 22 22 22 23 23 23 23 23 24 24 25 25 26 27 28 28 29 30 30 31 32
26 26 25 25 25 24 25 25 25 24 24 24 24 24 24 23 23 23 24 24 23 23 24 24 24 24 23 24 24 24 25 25 25 26 27 27 28 28 29 30 31 31 32 34
27 26 26 26 25 25 25 25 24 24 24 24 25 25 25 25 25 25 25 25 25 24 24 24 24 25 24 24 24 25 25 26 26 27 28 28 28 29 30 31 31 33 34 35
26 26 26 26 25 25 25 25 25 25 25 25 25 26 26 26 26 26 26 26 26 25 25 24 24 24 25 25 25 26 27 28 28 29 30 30 31 31 31 32 33 33 34 35
26 26 26 26 25 25 25 25 26 26 26 25 26 26 26 27 27 27 27 27 26 26 25 25 26 26 26 27 27 28 29 30 30 31 31 31 32 33 33 34 34 36 37 37
26 26 26 26 25 26 26 26 27 27 26 26 26 26 26 26 27 27 27 27 27 27 27 27 27 28 28 29 29 30 31 31 32 32 33 33 33 34 34 35 36 37 38 39
27 26 26 26 26 25 26 26 27 28 28 28 27 27 27 27 27 27 27 27 28 28 28 29 29 30 30 31 31 31 32 32 32 33 34 34 34 35 36 37 38 38 39 40
27 26 26 25 25 26 26 27 27 28 28 28 28 28 28 28 28 28 28 28 29 30 30 31 31 32 32 32 32 32 33 33 34 35 35 36 36 37 38 38 39 39 39 40
27 27 26 26 26 26 27 27 27 28 28 29 29 29 28 28 29 29 30 30 31 32 32 32 33 33 33 34 34 34 34 35 36 36 37 37 38 38 38 39 39 39 39 39
27 27 27 27 27 27 27 27 27 28 28 28 28 28 28 29 29 30 31 31 32 32 32 32 33 33 34 35 35 36 36 36 36 37 37 37 38 38 38 38 38 38 38 39
28 28 28 28 28 28 27 27 27 27 27 27 28 28 29 29 30 30 31 31 32 32 32 32 33 34 35 35 36 37 37 37 37 37 37 37 38 38 38 38 39 39 39 39

GEFSNGP_500_meanwind_186.txt.gz
Wind_Speed
14 13 13 13 13 14 14 13 13 13 13 11 13 12 13 12 12 12 12 13 13 13 13 14 14 15 16 16 16 16 15 14 14 14 14 14 14 13 13 13 13 13 12 12
13 14 14 14 13 13 14 14 14 14 13 12 14 14 14 13 13 13 13 13 13 13 13 13 14 15 15 16 16 16 15 15 15 14 14 14 14 13 14 14 14 15 13 13
14 14 15 16 14 14 14 14 14 14 13 14 14 14 14 14 14 14 14 14 14 14 13 14 14 15 15 15 15 16 16 15 16 15 14 14 14 15 15 15 14 14 14 14
16 15 16 14 13 13 14 14 14 14 15 15 15 14 14 14 14 14 14 14 15 15 15 15 15 15 15 16 16 16 16 15 15 15 15 15 15 16 16 15 15 15 15 15
16 16 16 15 14 14 15 15 14 14 16 17 16 16 14 14 14 14 14 15 16 16 16 15 15 15 16 16 17 16 16 16 16 15 15 15 15 16 16 16 16 16 17 17
17 17 17 16 15 14 15 16 15 15 15 16 16 17 15 13 14 14 15 15 15 16 16 16 16 16 16 16 16 17 16 16 16 16 16 15 15 15 15 15 16 17 18 19
18 18 18 17 16 15 15 16 15 16 15 15 16 16 15 15 14 14 15 15 15 16 16 17 16 16 16 17 17 17 17 16 16 16 16 16 16 15 16 16 17 17 19 19
20 20 20 18 17 16 16 16 16 17 17 17 17 16 16 16 15 14 15 15 15 15 16 16 16 16 16 16 16 16 17 17 17 17 16 16 16 17 17 18 19 19 19 20
20 20 18 18 17 17 18 17 17 17 17 17 16 17 17 17 16 16 16 15 15 15 16 17 17 17 17 17 17 17 17 18 18 17 17 17 18 19 19 19 20 20 20 20
21 20 19 18 17 17 18 18 17 17 16 16 17 17 17 17 17 17 16 16 16 16 17 18 18 18 17 17 17 18 18 19 19 19 19 18 19 19 20 20 20 21 21 21
21 21 20 19 18 18 18 17 17 17 17 17 17 16 16 17 17 17 17 16 17 17 18 19 18 19 18 18 18 18 19 20 20 20 20 20 20 21 21 22 22 22 22 22
22 22 22 21 19 19 19 18 18 17 17 17 16 16 17 17 17 17 17 17 17 17 17 18 18 18 18 19 19 19 19 19 20 20 21 21 21 22 22 23 24 24 23 23
24 23 23 21 21 21 20 19 19 18 18 18 17 17 17 17 17 17 17 18 17 17 18 17 18 18 18 19 19 19 19 19 20 21 22 22 22 22 23 24 25 25 25 26
25 24 24 22 22 22 21 20 19 19 19 18 18 18 18 18 18 18 18 19 18 19 19 19 19 19 19 19 20 20 21 22 22 22 23 23 23 23 24 24 25 26 26 27
26 26 25 24 24 23 23 22 21 20 20 19 19 19 19 19 20 19 19 19 19 19 19 19 20 20 20 20 21 22 22 23 23 23 24 24 24 25 25 25 26 26 27 27
29 28 27 26 25 25 24 23 23 22 22 21 21 20 20 20 20 20 20 20 20 19 19 20 20 20 21 22 22 23 23 24 25 25 25 25 26 26 26 26 27 28 28 28
30 29 28 27 27 26 25 24 24 23 23 23 22 22 21 20 20 20 20 20 21 21 21 21 22 22 22 23 23 23 24 24 25 25 25 26 26 26 27 27 28 28 28 29
30 30 29 28 27 27 26 25 25 25 24 24 23 23 22 22 22 22 22 22 22 22 22 23 23 23 24 24 24 24 24 25 26 26 27 27 27 27 28 28 28 29 29 30
29 30 29 29 28 27 26 26 26 26 25 24 23 23 23 23 23 22 22 22 22 22 22 23 23 23 23 24 24 24 24 25 27 27 27 27 28 28 28 29 29 29 30 30
29 29 29 29 28 28 27 27 27 27 26 25 24 24 24 24 24 24 23 23 23 23 23 23 23 23 23 23 24 25 25 26 27 27 28 29 29 30 30 30 30 31 32 33
28 28 28 29 29 28 27 28 28 27 26 26 26 26 26 26 26 26 25 25 25 25 25 24 24 24 24 25 25 26 27 27 27 27 28 28 29 30 31 32 32 33 33 34
27 27 27 28 28 28 27 28 28 28 27 27 26 26 26 27 27 27 27 26 26 27 27 26 26 26 26 26 27 27 28 28 28 29 29 30 31 31 32 33 33 34 35 35
28 27 27 28 28 28 28 28 28 28 28 28 27 27 27 27 27 27 27 27 27 27 27 27 27 28 28 28 28 29 29 29 29 30 31 31 31 32 33 34 34 35 36 36
28 28 28 28 28 28 28 28 28 28 28 28 28 28 28 28 27 27 28 28 28 28 28 29 29 29 29 29 29 30 30 30 31 31 31 32 33 33 34 35 36 36 37 38
29 29 29 29 28 28 28 27 27 28 28 28 28 28 28 29 29 29 29 29 29 30 30 30 30 29 29 29 29 30 31 31 32 32 33 33 34 35 36 36 37 38 38 38
29 29 29 29 29 29 28 28 28 28 28 28 28 28 28 29 29 30 30 30 30 30 29 29 30 30 30 30 30 31 31 32 33 33 34 35 36 37 38 38 38 39 39 39
29 29 29 29 29 30 30 29 29 29 29 29 29 29 30 30 30 30 30 29 29 30 30 30 30 30 31 31 32 32 32 33 34 35 35 36 36 37 37 38 38 39 39 39

GEFSNGP_500_meanwind_192.txt.gz
Wind_Speed
14 13 13 13 13 13 13 12 11 10 10 10 10 10 10 10 9 10 10 10 12 13 13 13 14 15 15 16 16 15 15 15 15 15 14 14 13 12 12 12 12 12 11 11
14 14 14 14 13 13 13 13 12 11 10 10 11 12 12 11 11 10 10 10 11 11 11 12 12 14 15 15 16 16 16 16 16 16 15 15 14 13 13 12 12 12 12 13
15 14 14 14 13 13 12 13 13 12 11 11 11 11 12 12 11 11 11 11 11 12 12 12 12 13 14 14 16 16 16 16 16 16 16 15 16 15 14 13 13 14 13 14
16 15 16 13 12 13 13 12 12 12 11 12 12 12 12 12 12 11 12 12 12 13 13 13 13 13 14 14 15 16 17 17 17 17 16 16 16 15 14 14 14 15 15 15
17 17 15 14 13 13 13 13 13 13 13 13 12 13 13 12 12 12 13 12 13 13 13 14 14 14 15 15 15 16 16 17 17 17 16 16 16 16 16 16 16 16 16 16
17 17 16 14 13 13 13 13 13 13 13 12 12 13 13 12 12 12 12 13 13 13 14 14 14 15 15 15 15 16 16 16 17 18 18 18 18 17 17 17 17 16 17 17
18 17 15 14 14 14 13 12 12 13 13 13 12 12 12 12 12 11 12 12 13 13 14 14 15 15 15 16 16 16 17 17 18 19 19 19 18 18 17 17 18 17 18 17
18 18 16 14 14 14 13 13 14 13 13 14 13 13 13 12 12 12 12 13 13 14 14 15 16 16 16 16 17 17 17 18 18 19 19 19 19 18 18 18 18 18 18 18
17 16 15 15 15 14 13 14 14 14 14 14 14 14 13 13 13 13 13 14 14 14 15 15 15 15 16 17 17 18 18 18 18 19 19 19 19 18 18 19 19 19 19 19
19 17 16 16 16 15 14 15 15 15 15 14 15 15 15 14 14 14 14 15 15 15 16 16 16 16 16 17 18 19 19 19 20 20 19 19 19 20 19 19 19 19 20 20
20 18 17 17 17 16 16 16 15 15 15 14 15 16 16 15 15 15 15 16 17 16 16 17 17 16 17 17 18 19 20 20 21 21 21 21 20 20 21 21 20 20 21 21
20 19 19 18 18 17 16 16 15 16 15 15 15 15 15 15 16 16 16 17 17 17 17 17 17 17 18 18 19 19 19 20 21 22 22 23 22 22 22 22 22 23 22 22
22 21 20 19 19 18 17 17 17 16 16 15 16 16 16 16 17 17 17 18 18 18 18 18 17 17 18 19 20 20 20 21 21 22 22 23 23 23 23 23 23 23 23 23
24 23 22 21 20 19 18 17 17 17 17 17 17 17 16 16 17 17 17 18 18 18 17 18 18 18 18 18 19 19 20 20 20 20 21 22 23 23 23 23 24 24 24 24
25 25 24 23 22 20 19 19 19 19 18 18 18 17 17 16 17 17 17 18 18 18 18 18 18 18 18 18 18 19 20 20 21 22 22 22 22 23 23 24 24 25 25 25
25 26 25 24 22 21 20 20 20 19 20 19 19 18 17 17 17 18 18 18 18 18 19 19 19 19 19 19 19 20 21 21 22 22 23 24 24 24 24 25 25 25 25 26
27 26 25 24 23 22 22 21 21 21 21 21 21 20 19 18 18 18 19 19 19 19 19 19 20 20 20 20 21 21 22 23 23 23 24 24 25 25 25 25 25 25 26 27
26 26 25 24 24 23 23 23 23 23 23 22 22 22 21 20 19 19 19 19 19 19 20 20 20 20 20 21 21 21 22 22 22 23 24 25 25 26 25 25 26 27 27 28
27 27 27 26 26 25 24 24 24 24 24 24 24 24 23 22 21 21 20 20 19 20 20 20 20 21 21 21 21 21 22 23 23 24 24 25 25 26 26 26 27 27 28 29
28 27 27 27 27 26 25 24 24 25 25 26 25 24 24 24 23 22 21 21 21 21 21 21 21 22 22 22 23 23 24 24 24 25 26 26 26 26 26 27 28 29 30 31
27 26 26 26 26 26 25 25 25 25 25 25 25 24 24 24 24 23 23 22 22 22 22 22 23 23 23 24 24 24 24 25 25 26 26 27 27 27 28 29 29 30 31 32
28 27 26 26 26 26 26 25 25 24 25 24 24 24 24 24 25 25 24 24 23 23 24 24 24 24 25 25 25 24 25 25 26 26 26 27 27 28 28 29 30 32 33 34
28 27 26 26 25 25 25 25 25 25 24 24 24 24 24 24 24 25 26 25 25 25 25 25 25 25 24 24 25 25 26 26 26 27 27 27 28 28 29 31 32 33 34 34
27 27 27 27 26 26 25 26 26 26 25 25 25 24 24 24 24 25 26 26 26 26 26 26 26 25 25 25 26 26 27 27 27 28 28 29 30 30 31 32 33 34 34 34
27 26 26 27 27 27 26 26 26 26 26 26 26 25 25 26 26 26 26 26 26 26 26 26 26 27 27 27 27 27 28 28 28 29 29 30 31 31 32 32 33 33 34 34
27 27 26 26 27 27 27 26 26 26 26 26 26 27 27 27 27 26 26 26 26 26 26 27 27 28 28 28 28 28 29 29 30 30 30 31 32 32 33 33 34 34 35 35
28 28 28 28 28 28 28 28 27 27 28 27 27 28 28 28 28 28 27 27 26 27 27 27 27 27 28 28 28 29 30 30 31 31 31 32 32 33 34 34 35 35 36 36

GEFSNGP_500_meanwind_198.txt.gz
Wind_Speed
16 15 15 15 15 15 15 14 14 13 13 12 13 14 14 13 13 13 12 13 14 16 16 16 17 17 17 17 17 17 16 15 15 16 16 16 15 14 13 13 13 12 12 12
17 16 16 16 14 15 14 14 13 13 12 11 13 14 14 14 13 13 12 12 13 14 15 16 16 17 17 16 17 17 17 16 16 16 16 16 16 15 14 14 13 13 12 13
17 16 16 16 14 14 14 14 14 13 12 12 13 14 15 15 14 13 13 13 14 14 16 17 17 17 16 16 17 17 17 17 16 16 17 17 16 16 15 15 14 14 14 14
18 17 17 14 14 14 14 14 14 12 12 12 13 14 14 14 14 13 13 13 14 15 15 16 16 16 16 16 16 16 17 17 16 16 17 17 17 16 16 16 16 16 15 15
19 18 17 15 14 14 15 14 14 13 13 13 13 14 14 15 15 14 14 14 14 16 16 16 16 16 16 16 16 15 15 16 16 17 17 17 17 17 17 17 17 16 16 16
19 18 18 16 15 15 15 14 14 14 14 14 14 14 14 14 14 14 14 14 14 15 15 15 15 16 17 17 16 16 15 15 16 17 17 17 17 18 17 17 17 17 17 17
19 18 17 15 15 15 15 13 13 14 14 14 13 13 14 14 15 14 14 15 15 15 15 15 16 16 16 16 16 16 16 16 16 16 16 16 16 17 17 17 16 16 17 17
19 19 17 16 16 16 14 13 14 14 14 14 14 14 14 14 14 14 14 15 15 15 15 15 15 16 16 16 16 17 17 16 16 16 16 16 16 17 17 17 16 16 17 17
20 19 18 17 16 16 15 15 14 14 14 14 14 14 14 14 14 14 14 14 15 15 15 15 15 16 17 17 17 17 17 17 17 17 17 17 17 17 17 18 18 18 17 18
21 19 18 17 16 16 16 16 15 15 15 15 15 15 15 14 14 15 15 15 15 15 15 15 15 16 16 16 17 18 18 18 18 18 18 18 18 18 18 19 19 19 19 19
22 21 19 18 17 17 17 16 16 15 14 15 15 15 15 15 16 16 17 15 15 15 16 16 16 16 17 17 17 17 18 18 18 18 18 18 19 19 20 20 19 19 20 20
23 22 21 19 18 18 18 17 17 16 15 15 16 16 16 16 16 16 17 17 16 16 17 17 17 17 17 17 18 18 18 19 19 19 19 19 20 20 20 20 20 20 21 21
23 22 21 21 21 20 19 18 18 17 16 16 16 16 16 16 17 17 17 17 17 18 18 18 18 18 18 18 18 18 18 19 20 20 20 20 21 21 21 21 21 22 23 23
23 22 22 22 22 21 20 20 19 18 17 16 16 16 16 16 16 16 17 17 18 19 19 20 19 19 19 20 19 19 19 19 20 20 21 21 21 21 22 22 23 23 24 24
23 23 23 22 22 22 21 21 20 20 19 18 18 17 18 18 18 17 17 18 18 18 19 20 20 20 20 20 20 20 20 20 20 21 21 21 21 22 22 22 23 24 25 26
25 25 24 24 23 23 23 22 22 22 21 20 19 19 19 19 18 18 18 18 19 18 19 20 20 20 20 20 21 21 20 20 21 21 21 21 21 22 22 23 24 25 26 26
26 25 24 25 25 25 24 23 23 23 22 21 21 20 20 20 20 19 19 18 18 19 19 20 20 20 21 21 21 21 21 21 21 21 21 22 22 22 23 23 24 25 26 27
27 27 26 25 26 26 24 23 23 23 23 22 21 21 21 21 21 20 20 20 20 20 20 19 19 20 20 20 21 21 21 21 21 22 22 23 23 24 24 24 26 26 27 28
28 28 27 27 26 26 25 24 25 25 24 23 22 21 21 21 22 21 21 22 22 21 21 21 20 20 20 21 22 22 22 22 22 23 23 24 24 25 25 26 27 27 28 28
29 28 28 27 27 26 26 26 27 26 26 25 24 24 24 23 23 23 23 23 23 22 22 22 22 21 21 22 22 22 23 23 24 24 25 25 25 26 26 27 28 28 27 28
29 29 28 27 27 27 27 27 28 27 27 27 26 26 26 26 25 25 24 24 24 24 24 24 23 23 23 23 23 24 24 24 25 25 26 26 27 27 27 28 28 28 29 29
30 30 29 29 28 28 28 28 28 28 28 28 27 27 27 27 27 26 25 24 25 25 25 25 25 25 25 25 24 24 25 26 26 26 26 26 27 27 27 28 29 30 30 31
31 31 30 30 29 29 29 29 28 28 27 27 27 27 27 27 27 27 26 25 25 25 25 26 26 26 26 26 26 26 26 26 26 26 26 26 27 28 29 29 30 30 31 31
31 31 31 31 30 30 29 29 28 28 27 27 27 27 27 27 27 27 27 27 26 26 26 26 26 26 26 27 27 27 26 25 25 26 26 27 28 29 30 30 31 32 32 32
31 31 31 30 30 30 29 29 29 28 28 27 27 27 28 28 28 27 28 27 27 27 27 27 27 26 27 27 27 26 27 27 27 27 28 29 29 30 31 31 32 32 33 33
31 31 31 31 31 31 31 30 30 29 28 28 27 28 28 28 28 27 27 27 27 28 28 28 27 27 27 27 27 27 28 28 28 29 29 30 31 31 32 32 32 33 34 35
31 31 31 31 31 31 32 31 31 30 29 29 28 27 27 27 27 27 27 28 28 28 28 28 28 28 28 28 28 28 29 29 30 31 31 31 32 32 33 33 33 33 34 34

GEFSNGP_500_meanwind_204.txt.gz
Wind_Speed
18 18 17 16 16 16 16 16 15 15 14 12 12 13 14 14 14 14 14 14 15 15 16 16 17 17 17 17 17 17 17 16 16 15 15 14 14 14 14 14 14 14 13 13
19 18 18 18 17 16 16 16 15 14 13 12 13 13 14 14 14 14 14 14 15 15 15 15 15 16 16 17 17 17 17 17 17 16 15 15 15 14 14 14 14 14 14 14
19 19 19 19 17 17 16 16 16 15 13 14 14 14 14 14 13 13 14 15 15 15 15 15 14 15 16 16 17 17 17 17 17 17 16 16 16 15 15 14 14 14 14 14
19 19 20 17 16 16 16 16 15 14 14 14 15 14 14 14 14 14 14 15 15 15 15 15 15 15 16 16 17 17 18 18 18 17 17 17 16 15 15 15 14 14 14 14
20 20 19 17 16 16 16 15 15 14 14 14 15 15 14 14 14 14 14 15 16 15 16 16 16 16 17 17 18 18 18 18 18 18 18 17 16 16 15 15 15 15 14 15
21 20 19 17 16 16 16 15 14 14 14 15 15 15 13 13 14 14 14 14 15 16 17 17 16 16 17 17 18 18 18 18 18 18 18 18 17 17 16 16 16 16 16 16
21 20 19 17 16 15 15 13 14 14 14 14 14 13 12 13 13 14 14 14 14 15 16 16 16 17 17 17 17 17 18 18 18 17 17 17 17 17 17 17 17 17 17 17
22 21 19 17 16 16 15 14 14 14 14 14 13 13 13 13 13 13 14 14 14 14 15 15 16 16 17 17 17 17 18 18 17 16 16 16 17 17 17 17 17 17 17 17
22 21 19 19 17 16 15 15 15 15 15 14 14 14 14 14 13 13 13 13 13 14 14 15 15 15 16 17 17 17 18 18 18 17 17 17 17 17 17 17 17 17 17 17
22 20 19 19 18 17 16 16 16 16 15 15 14 14 14 14 13 13 13 13 13 13 13 14 14 15 15 15 16 17 17 17 18 18 18 18 17 17 17 17 17 17 17 17
22 20 20 19 19 18 17 17 17 17 16 16 15 14 14 14 14 14 14 14 14 13 14 14 14 15 15 15 16 17 17 17 17 17 17 18 18 18 18 18 18 17 17 18
23 22 20 19 19 19 19 18 18 17 17 16 16 16 15 15 15 15 16 16 16 15 15 15 16 15 15 15 16 16 17 17 17 17 17 18 18 19 19 19 19 19 18 19
24 23 21 21 21 21 20 20 19 18 17 17 16 16 17 17 16 16 17 17 17 17 17 17 17 17 16 16 17 17 17 17 17 18 18 18 19 19 20 20 20 20 20 20
25 24 23 22 22 21 21 20 20 20 19 19 18 17 17 18 17 17 17 17 17 17 17 17 17 17 16 17 17 17 18 18 18 18 19 19 19 20 20 20 21 22 22 22
26 25 24 24 23 23 22 22 21 21 21 20 19 19 19 19 18 18 18 18 18 18 18 18 18 18 18 18 18 18 19 19 19 19 20 20 20 21 21 22 22 23 23 24
28 27 26 25 25 24 24 23 23 23 22 21 20 20 20 19 19 19 19 19 18 18 18 19 19 20 20 19 19 19 19 20 20 20 20 21 21 22 23 23 23 24 24 24
28 28 27 26 26 26 26 26 25 25 24 23 22 21 21 21 20 20 20 20 20 20 20 20 20 20 20 21 21 21 21 21 21 21 21 22 23 23 24 24 24 24 24 24
28 28 27 26 26 26 26 26 26 25 25 25 24 23 23 22 22 21 21 20 20 20 20 20 20 20 20 21 21 21 21 22 22 22 22 22 23 23 24 25 25 25 25 24
28 28 28 27 27 27 26 26 27 26 26 26 26 25 24 23 23 22 21 21 21 21 21 21 21 21 21 21 22 22 22 22 23 23 23 23 24 23 24 24 25 25 25 26
29 29 29 29 28 28 27 27 28 27 26 27 27 26 25 24 23 23 23 22 22 22 21 21 22 22 23 22 22 22 23 23 23 23 23 24 24 24 24 25 25 25 26 26
29 30 29 29 29 28 28 28 27 27 27 27 26 26 25 24 24 24 24 23 23 23 22 22 22 22 23 24 24 24 24 24 24 24 24 24 24 25 25 25 26 26 26 27
29 30 29 29 28 28 28 28 27 27 27 26 26 26 26 25 25 25 25 25 25 24 24 23 23 23 23 23 24 24 24 24 24 24 24 24 25 25 26 26 27 26 27 27
30 29 29 29 28 28 28 28 28 28 27 27 27 27 27 26 26 26 25 25 26 25 25 25 24 24 23 23 24 24 25 25 25 25 25 25 26 26 26 27 27 27 27 28
30 29 29 29 29 29 29 29 29 29 28 28 28 28 27 27 26 26 26 25 25 25 25 24 25 25 25 25 25 25 26 25 25 25 25 26 26 26 27 27 27 28 28 29
31 30 29 29 29 29 30 30 29 29 29 28 28 28 27 27 26 26 25 25 25 25 25 25 25 25 25 25 26 26 26 26 26 26 25 25 26 27 27 27 28 28 29 30
31 30 30 30 30 30 29 29 29 28 28 28 27 27 27 27 27 27 26 26 25 26 26 26 26 26 26 27 27 27 27 27 27 26 26 27 27 27 28 29 29 30 30 31
29 30 30 30 30 30 30 29 29 29 28 28 28 27 27 27 27 27 27 26 26 26 27 27 27 28 28 28 28 28 27 27 28 28 28 28 28 28 29 30 30 31 31 32

GEFSNGP_500_meanwind_210.txt.gz
Wind_Speed
20 19 19 19 19 17 18 18 19 18 18 18 17 16 16 16 15 15 15 16 16 15 16 16 16 16 15 16 16 16 16 15 15 15 15 14 14 14 13 13 13 13 13 13
20 20 19 20 19 18 17 18 18 19 18 17 16 15 15 15 15 14 14 15 16 16 16 16 16 16 16 16 16 16 16 16 15 15 15 15 15 14 14 14 13 13 13 14
20 19 21 21 19 19 18 18 19 19 17 16 17 16 15 14 15 15 14 14 15 15 16 16 16 16 16 16 17 16 16 16 16 16 16 16 15 15 15 14 14 14 14 14
21 20 21 20 18 19 19 18 18 19 18 17 17 16 15 15 16 16 15 14 14 15 15 16 16 16 17 17 17 17 16 16 16 17 17 16 16 16 15 15 15 15 15 15
22 22 21 19 18 17 18 17 17 18 16 17 17 17 16 16 17 17 16 15 15 14 14 15 15 15 15 16 17 17 17 16 16 17 17 17 16 16 16 16 16 17 15 15
22 22 22 19 18 16 17 18 16 16 16 16 17 17 16 15 16 17 17 16 15 14 14 14 15 15 15 16 16 17 17 16 17 17 17 17 17 17 17 17 18 17 16 15
22 23 21 19 19 17 18 17 16 17 16 15 15 15 15 15 15 16 16 16 15 15 14 15 15 16 16 16 16 16 16 17 17 18 18 18 18 18 18 18 18 17 17 17
23 23 21 19 19 19 18 17 17 17 17 16 15 15 15 14 14 15 15 15 15 15 15 15 15 15 16 17 17 17 17 17 17 17 18 18 18 17 17 18 18 18 17 17
23 23 21 20 20 19 18 18 18 17 17 17 17 16 15 15 14 14 14 14 14 15 15 15 15 15 15 16 17 17 17 17 17 17 17 18 18 17 17 17 17 18 18 18
24 23 23 21 20 20 20 20 20 19 19 18 18 17 16 16 15 14 13 14 14 14 14 15 15 15 15 15 16 17 17 17 17 17 17 17 18 17 17 17 17 18 18 19
26 25 24 22 21 21 22 22 21 21 21 20 18 18 18 17 16 15 15 15 14 13 13 14 15 15 15 16 16 16 17 17 17 17 17 18 18 18 18 18 17 18 18 19
27 26 25 24 22 22 22 22 22 22 22 21 20 20 19 18 17 16 15 15 15 15 14 13 14 15 15 15 16 16 17 17 17 18 18 19 19 19 19 19 19 19 19 19
27 26 26 25 24 23 24 23 22 22 23 22 22 21 20 19 18 17 17 16 16 15 15 14 15 15 16 16 17 17 18 17 17 18 18 19 19 19 19 19 20 20 20 20
29 27 27 26 26 25 25 24 23 23 23 23 22 22 22 21 20 19 18 18 17 17 16 15 15 16 16 16 17 17 18 18 19 19 19 19 19 19 20 21 21 20 20 20
30 30 29 27 27 27 26 25 24 23 24 24 23 23 22 22 22 21 20 20 19 19 18 17 17 17 17 17 17 17 17 18 18 19 19 20 20 21 21 21 21 21 21 22
30 30 29 29 28 28 27 26 25 24 24 24 24 24 24 24 23 23 22 21 21 21 20 20 20 20 20 20 19 19 19 19 19 19 19 20 21 21 22 22 23 23 23 23
30 30 30 30 29 28 27 27 26 26 25 24 25 25 25 25 25 25 24 23 22 22 22 21 21 21 21 21 21 21 21 20 20 20 20 20 20 21 22 22 23 23 23 24
30 29 29 30 29 29 28 28 27 26 26 26 26 26 27 27 26 26 25 25 24 24 23 23 22 22 22 22 22 22 22 21 21 21 21 21 21 21 22 22 22 23 24 25
30 30 30 30 30 29 29 29 28 27 27 27 27 27 28 27 27 27 27 26 25 24 24 24 23 23 23 22 22 23 22 22 22 22 22 22 23 23 23 23 23 24 25 25
31 30 30 30 31 31 30 30 29 28 27 27 27 27 28 28 27 27 28 27 26 25 25 25 24 24 24 24 23 23 23 23 23 23 23 23 23 23 23 23 24 24 25 25
30 31 31 31 31 31 31 30 30 29 28 28 28 28 28 28 28 28 29 29 28 27 26 25 25 24 24 24 24 24 24 24 24 23 23 23 23 23 24 24 24 25 25 26
31 31 32 32 31 31 31 30 29 29 29 28 29 29 29 28 27 27 27 28 28 28 28 27 27 26 26 25 25 25 25 25 25 25 25 25 24 24 25 25 26 26 27 27
31 31 31 31 31 30 30 30 29 29 29 29 29 29 29 28 27 27 26 26 27 27 27 27 27 27 27 26 26 26 26 26 26 26 26 26 26 26 27 27 27 27 27 28
30 31 31 30 31 31 31 30 30 29 29 28 29 29 28 28 27 26 26 26 26 25 26 26 26 26 26 25 26 26 27 27 27 27 27 27 27 28 28 28 28 28 28 28
29 29 29 30 30 31 31 31 30 30 29 29 29 29 28 28 28 27 26 26 26 26 26 25 25 25 25 25 25 25 26 26 27 27 27 28 27 28 28 28 28 28 28 28
28 28 28 28 29 30 30 30 30 30 30 29 29 29 28 28 28 28 27 26 26 26 26 26 26 25 25 25 25 25 25 26 27 27 27 27 27 28 28 28 28 28 29 29
28 28 29 29 29 30 30 29 29 30 30 30 29 29 29 29 29 29 28 27 26 26 26 25 26 26 26 26 26 26 26 27 27 27 27 28 28 28 28 28 28 28 29 30

GEFSNGP_500_meanwind_216.txt.gz
Wind_Speed
19 19 19 18 18 18 19 19 19 17 16 14 14 14 13 12 12 12 12 12 12 13 14 14 14 14 14 15 16 16 16 17 17 17 16 16 15 16 15 15 15 14 14 14
19 20 21 21 19 19 19 18 18 17 14 13 14 14 14 14 13 12 12 12 13 13 14 14 14 14 15 15 15 16 16 16 16 16 17 17 17 16 16 16 16 15 15 14
20 19 21 20 18 19 19 18 17 16 14 14 15 15 14 14 14 14 13 12 12 12 12 13 13 15 15 15 15 15 16 16 16 16 15 16 17 16 16 16 16 15 14 14
21 21 22 17 17 18 18 17 17 16 15 16 16 15 14 13 13 13 12 12 12 12 12 12 13 15 15 15 15 15 16 16 16 15 15 15 16 16 16 16 16 15 15 15
21 21 20 17 16 16 17 16 15 15 14 14 14 15 13 12 12 12 12 12 12 12 12 12 13 14 15 15 15 15 16 17 17 16 15 16 15 16 17 17 16 16 16 16
21 21 20 16 17 17 17 16 15 15 14 14 15 14 13 12 13 13 13 13 13 13 12 12 12 14 15 15 15 15 16 16 17 17 17 16 16 17 17 17 17 17 16 17
22 22 20 17 18 19 18 16 15 15 14 14 15 14 14 14 13 13 13 13 13 13 13 13 13 14 14 14 14 15 16 16 17 17 17 17 17 18 18 18 18 17 17 18
23 23 20 19 20 20 19 18 17 16 15 15 14 14 15 14 13 13 13 13 12 13 13 14 14 13 14 15 15 16 16 16 16 17 17 17 17 17 17 17 18 19 19 19
23 22 21 21 22 22 21 19 19 18 16 16 16 16 15 16 15 14 13 13 13 13 13 13 13 13 14 15 16 17 17 17 16 16 17 18 18 18 17 17 18 18 19 19
24 22 22 22 23 22 21 20 19 19 18 17 16 16 17 16 16 15 14 14 14 14 14 13 14 14 14 14 15 16 17 18 17 17 17 17 18 18 17 17 17 18 18 18
24 23 23 23 22 22 21 21 20 20 18 18 18 17 17 17 16 15 15 15 15 14 15 14 14 14 15 15 15 15 17 18 18 18 18 18 18 17 17 17 17 17 17 18
25 25 25 24 23 23 23 22 22 22 20 20 19 19 18 18 17 16 17 16 16 15 15 15 15 15 15 16 16 17 17 17 17 18 18 18 18 17 17 17 17 17 17 17
27 26 26 25 25 25 24 23 23 22 22 22 21 20 20 20 19 18 18 18 17 16 16 16 16 17 17 17 17 17 17 17 17 17 17 17 17 17 18 18 18 17 17 17
26 26 26 25 25 26 25 24 24 24 24 23 23 22 22 21 21 20 19 19 18 18 17 17 16 16 17 17 18 18 18 18 18 18 18 18 18 18 18 18 18 18 18 18
27 27 25 25 26 26 26 26 26 26 26 25 25 24 23 23 22 22 21 20 20 19 19 19 18 18 18 18 18 18 18 18 19 19 19 19 19 18 18 19 19 19 20 20
27 27 27 27 26 26 27 27 27 27 28 27 26 25 25 24 22 22 22 22 21 21 21 21 20 20 20 20 19 19 19 19 20 20 20 20 20 20 20 20 21 21 22 22
28 27 27 28 27 27 28 27 27 27 29 28 27 26 26 25 24 24 23 22 23 23 23 23 22 22 22 21 21 20 20 20 20 21 21 21 21 21 21 21 22 22 22 22
28 28 27 27 27 28 28 27 27 28 29 29 29 29 27 26 26 25 24 24 24 24 24 24 24 23 23 22 22 22 22 22 22 23 23 22 22 23 22 22 22 22 23 23
29 29 28 28 27 27 28 28 27 28 29 29 29 29 29 28 28 27 26 25 25 24 24 24 25 25 24 24 24 24 24 24 23 24 24 24 24 23 22 22 22 23 23 23
29 29 28 28 28 28 28 28 28 29 29 30 30 30 30 29 29 28 27 27 26 25 25 25 26 26 26 25 25 25 25 24 24 24 24 24 23 23 23 23 23 23 23 23
29 29 29 29 29 29 29 29 29 29 29 29 30 30 30 29 29 29 29 28 28 28 27 27 26 26 26 25 25 25 25 24 24 24 24 23 23 23 23 23 23 23 23 24
28 28 28 29 29 29 29 30 30 29 29 28 29 29 29 29 29 29 29 29 29 29 28 27 26 26 26 26 26 25 25 24 24 24 24 24 24 24 24 24 24 24 24 25
26 27 28 28 28 28 27 28 29 29 28 28 28 28 28 29 29 28 28 28 29 29 28 27 27 27 27 27 26 25 25 24 24 25 25 25 25 24 24 24 25 25 25 26
26 27 27 27 28 27 26 27 28 28 28 28 29 29 28 28 28 28 28 28 28 28 27 27 27 27 27 27 26 26 26 26 25 25 25 26 26 26 26 25 25 26 26 27
27 27 26 27 27 26 27 27 28 29 29 29 29 29 29 29 28 28 28 28 28 27 26 26 27 27 27 27 27 27 27 27 27 26 26 26 27 27 27 28 28 27 27 27
26 26 26 26 26 27 27 27 28 28 29 29 28 29 29 29 29 29 28 28 27 27 27 27 27 27 27 26 26 26 26 26 27 27 26 26 27 27 28 29 29 29 29 29
24 25 25 26 26 27 27 27 26 27 27 27 28 28 29 29 29 29 28 28 27 27 27 27 28 27 27 27 27 26 26 27 26 26 27 27 27 27 28 28 29 29 29 29

GEFSNGP_500_meanwind_222.txt.gz
Wind_Speed
20 20 19 19 19 20 20 20 20 17 16 13 14 15 15 15 14 14 14 14 14 14 14 15 15 15 15 16 17 17 17 17 16 16 17 16 16 16 16 16 16 15 15 15
21 21 21 20 20 20 19 19 19 18 17 16 16 16 16 16 15 15 14 14 15 15 15 15 15 15 16 16 16 16 16 16 16 16 16 16 16 15 15 16 16 15 15 15
22 23 23 22 19 20 20 19 19 19 18 17 17 17 16 16 16 16 15 15 15 15 15 15 15 15 15 15 15 15 15 16 16 16 15 15 15 15 15 15 15 15 16 16
24 24 25 21 20 20 20 19 19 19 18 17 17 17 17 16 15 15 15 16 16 15 15 15 15 15 15 15 15 15 15 15 15 15 15 15 15 15 15 15 15 16 16 16
26 25 23 21 20 20 20 19 18 18 18 17 17 17 17 17 16 16 15 15 15 14 15 15 15 15 15 15 15 14 14 14 15 15 15 15 15 15 15 15 16 16 16 16
26 25 24 20 21 21 22 20 19 19 18 18 17 17 17 17 16 16 15 15 15 14 14 14 14 14 14 15 14 14 14 14 14 15 15 15 15 15 16 16 16 16 16 17
27 26 23 22 22 22 22 20 20 19 19 18 17 17 16 16 16 16 15 15 15 14 15 14 14 14 14 14 14 14 14 15 15 15 14 14 15 15 16 16 16 16 17 17
27 27 24 23 23 23 23 22 21 21 19 18 18 17 16 16 17 16 16 16 16 16 16 16 15 15 14 14 15 15 15 15 15 14 14 14 14 14 15 16 15 16 16 17
27 26 24 24 23 23 23 22 21 20 20 19 19 18 18 18 18 18 18 18 17 17 17 17 16 16 15 15 15 16 16 16 15 14 14 14 15 15 15 16 16 16 17 17
27 26 25 25 24 23 23 23 22 21 20 20 19 19 19 19 19 19 18 19 18 17 17 17 17 17 15 16 16 16 16 16 16 15 15 16 16 16 16 16 16 17 17 17
26 25 26 25 25 25 24 24 23 21 20 21 20 20 20 19 19 19 19 19 20 19 19 18 17 17 17 16 16 17 17 17 17 17 17 17 17 17 17 17 17 18 18 18
27 26 27 26 25 25 25 25 23 23 22 22 22 22 21 21 20 20 19 19 20 20 19 18 18 18 18 18 18 17 17 17 18 18 18 18 18 18 18 18 18 18 18 18
28 29 28 26 26 26 26 25 25 24 25 25 24 23 23 22 21 21 20 20 19 19 19 19 19 19 19 18 18 18 18 18 18 18 18 18 19 19 19 19 19 18 18 18
29 29 29 28 28 28 27 26 25 25 25 26 25 25 24 24 23 22 21 20 20 20 20 21 21 20 20 20 20 19 19 18 18 19 19 19 20 20 20 20 20 19 19 19
30 30 30 29 29 28 27 26 26 26 26 27 26 26 25 25 24 23 22 22 22 22 22 22 21 21 21 21 21 20 20 20 20 20 20 21 21 21 21 21 21 20 20 21
32 31 29 29 28 28 27 27 26 26 26 27 27 26 25 25 25 25 25 24 23 23 23 23 22 22 22 21 21 21 21 21 21 21 21 21 20 21 21 21 22 22 22 22
30 29 29 29 28 27 27 27 27 26 27 27 27 27 26 26 25 25 26 26 25 25 24 24 23 23 23 23 23 23 23 23 23 23 23 22 22 22 22 23 23 24 24 24
30 29 29 29 28 28 27 28 28 28 28 27 27 28 28 28 28 27 27 27 27 27 26 25 25 25 25 25 24 24 25 25 25 25 25 26 25 25 24 24 24 25 25 25
29 30 29 29 29 29 28 29 29 29 29 29 29 29 29 29 28 28 28 28 29 28 27 27 26 26 26 25 25 25 26 26 26 26 26 27 26 26 25 24 24 25 25 25
29 29 30 30 29 29 30 30 30 31 31 31 30 30 30 30 30 29 29 29 29 29 29 29 28 28 27 27 26 26 26 26 26 26 26 26 26 25 25 25 25 25 25 25
29 29 30 30 30 30 30 31 31 32 32 32 31 30 30 30 30 30 29 29 30 30 30 30 30 29 29 28 28 27 27 26 26 27 27 27 27 26 25 25 25 25 25 26
29 30 30 30 30 30 30 30 31 32 32 32 31 31 31 31 31 31 31 31 31 31 30 30 30 30 30 29 29 28 27 27 27 27 27 27 27 26 26 26 26 26 26 26
28 29 30 30 31 31 31 30 30 31 32 31 31 31 31 31 32 32 32 32 33 33 32 32 32 31 31 31 30 29 29 28 28 28 28 27 27 27 27 27 27 27 27 27
27 28 30 31 31 31 31 30 30 30 31 31 31 31 31 31 31 32 32 32 32 33 33 33 32 32 32 31 31 31 30 30 29 29 28 28 28 28 28 28 28 28 29 29
27 27 28 30 30 30 31 30 31 31 31 31 31 31 31 31 31 31 31 31 31 31 32 33 33 32 32 32 31 31 31 31 30 30 29 28 28 28 28 28 29 29 29 29
26 27 27 28 28 29 29 29 29 29 29 29 30 30 30 30 30 30 31 31 32 32 32 32 32 32 32 31 31 30 30 30 30 30 29 29 29 28 29 29 29 30 29 29
26 26 27 27 27 27 28 28 28 28 28 29 30 30 30 30 30 31 31 31 31 31 31 30 31 31 31 31 31 30 30 30 30 30 29 29 29 28 28 29 29 29 30 30

GEFSNGP_500_meanwind_228.txt.gz
Wind_Speed
20 20 19 19 18 19 19 19 19 18 17 16 17 16 16 16 16 15 15 15 15 15 14 15 15 15 16 16 16 16 16 16 15 15 16 16 16 16 15 15 15 16 17 16
20 21 21 20 20 20 20 20 20 19 18 17 17 17 17 16 16 15 15 15 15 15 15 15 15 15 16 16 16 16 16 16 15 15 15 15 16 16 15 15 16 16 16 16
22 21 21 21 20 21 21 20 20 20 18 18 18 17 17 17 17 16 16 16 16 15 15 15 15 15 15 15 16 16 16 16 16 15 15 15 15 15 16 16 15 15 16 15
23 23 24 22 20 20 21 20 20 19 19 18 17 17 17 17 17 17 17 16 16 16 16 15 15 15 15 15 15 16 16 15 15 16 16 16 15 14 14 15 15 15 15 15
25 25 24 22 21 21 21 21 20 20 19 18 18 18 18 17 17 16 16 16 16 17 16 15 15 15 15 15 15 15 15 14 15 15 14 14 14 14 14 15 15 15 14 14
26 26 26 24 22 21 21 21 20 21 20 20 19 18 19 18 17 17 16 15 15 16 16 15 15 15 15 14 14 14 14 14 14 14 14 14 14 14 14 14 14 14 14 14
27 27 27 25 23 23 23 22 21 21 21 21 20 19 19 18 18 17 17 16 16 16 16 16 15 15 14 14 13 14 14 14 14 14 14 14 14 14 14 14 14 14 14 14
27 28 27 25 25 24 24 23 22 23 22 22 21 20 19 18 18 18 18 17 17 16 16 16 16 16 15 15 14 14 15 14 14 15 15 15 15 14 14 14 14 14 14 14
28 27 26 26 26 26 25 24 23 23 22 22 22 22 20 20 19 19 19 18 17 17 17 17 17 17 16 16 16 16 15 15 15 16 16 15 15 15 15 14 14 14 14 15
27 27 27 27 27 26 26 25 24 24 23 24 23 23 22 21 20 20 20 19 19 18 18 18 17 17 17 17 17 16 16 16 16 17 17 17 16 16 15 15 15 16 15 15
27 27 27 27 26 26 25 25 24 24 25 24 24 24 23 22 21 21 21 20 20 19 19 19 18 18 18 18 17 18 18 17 17 18 18 18 17 17 17 17 17 17 16 16
27 27 27 26 26 26 26 25 25 25 25 26 25 24 24 23 22 22 22 21 21 20 20 20 20 19 19 19 19 19 18 18 18 18 18 19 18 18 18 18 18 18 18 18
28 27 27 26 26 26 25 24 25 25 25 25 24 24 23 23 23 23 22 22 22 22 21 21 21 21 20 20 20 20 19 19 19 19 19 19 19 19 19 19 19 20 20 20
28 28 28 28 27 27 26 25 25 25 25 26 25 25 24 24 23 23 23 23 23 23 22 22 22 22 22 22 22 21 21 20 20 20 20 21 20 20 21 21 22 22 22 21
28 28 28 29 29 28 27 27 27 27 26 26 26 27 26 25 24 23 23 23 23 23 23 22 21 22 22 23 23 23 23 22 22 21 21 21 21 22 22 22 23 24 24 24
27 28 28 28 28 28 28 27 27 27 27 27 28 27 27 26 26 25 25 25 24 24 23 23 22 22 23 23 24 24 24 24 23 23 22 22 22 23 23 24 24 25 25 25
27 27 28 27 27 27 26 27 27 28 28 28 28 28 28 27 27 27 27 26 26 25 25 25 25 24 24 25 25 25 25 25 24 24 25 25 25 25 25 25 26 26 26 26
27 27 27 26 26 27 26 27 28 28 29 29 29 29 29 29 28 28 28 28 27 26 26 26 26 26 26 27 27 26 26 26 25 25 25 25 25 25 25 25 25 26 26 26
26 27 27 26 27 27 27 28 28 28 29 30 30 30 30 30 30 30 29 29 29 28 28 28 28 27 27 28 28 28 27 27 26 26 26 26 25 25 25 26 26 26 26 27
25 25 26 27 28 28 27 27 27 27 28 29 29 29 29 29 30 30 31 31 30 30 29 29 29 28 28 29 29 29 28 28 27 27 27 27 27 27 27 26 26 26 27 27
24 24 26 27 27 27 26 26 26 26 26 28 28 28 28 29 30 30 31 31 30 30 30 30 30 29 29 29 29 30 29 29 29 28 28 28 28 28 28 27 27 27 27 27
24 25 25 26 26 26 26 26 26 27 27 27 28 28 29 30 30 30 31 31 30 30 30 30 30 31 31 31 30 31 30 30 30 30 30 30 29 29 29 29 29 29 29 28
24 25 25 26 26 26 26 26 27 28 28 28 28 28 29 29 30 30 30 30 29 30 30 31 31 31 31 31 31 31 31 31 31 31 31 31 31 31 30 30 29 29 29 28
24 24 25 26 26 26 26 26 26 27 27 28 28 28 28 29 29 29 30 30 30 30 31 31 32 32 32 32 32 31 31 31 31 31 31 31 31 31 31 30 29 29 28 28
24 24 25 25 26 26 26 27 26 26 27 27 28 28 28 29 29 29 29 29 30 30 30 30 31 32 32 32 31 31 31 31 31 31 31 31 31 31 30 29 29 28 28 28
24 24 25 26 26 26 27 27 26 26 27 27 27 27 28 28 28 28 28 28 29 30 30 31 31 30 30 30 30 30 30 31 30 30 30 30 30 30 30 30 29 29 29 29
24 24 25 25 25 25 26 26 27 26 26 26 26 26 27 27 27 27 27 28 28 29 29 30 30 29 29 29 29 29 30 30 30 30 30 29 29 29 29 29 29 29 29 30

GEFSNGP_500_meanwind_234.txt.gz
Wind_Speed
20 20 20 21 21 20 20 19 20 19 19 19 21 21 20 20 20 20 19 19 19 18 18 18 17 17 17 16 16 16 16 16 15 16 16 16 17 17 16 16 16 16 16 16
20 20 20 21 21 22 21 20 20 20 20 21 21 21 21 21 20 20 19 19 18 18 18 18 17 17 17 16 16 15 15 16 16 15 16 16 16 15 15 16 16 16 16 16
21 21 22 22 21 22 22 22 22 21 21 21 20 22 21 21 21 21 20 19 18 18 18 17 17 17 17 17 16 16 16 16 15 15 16 16 15 15 15 15 15 16 16 16
23 23 24 23 23 23 22 22 22 22 21 20 20 21 21 22 22 21 20 20 19 18 18 17 16 16 17 17 17 17 17 17 16 16 15 14 14 14 15 16 16 16 16 16
25 25 25 24 24 22 22 23 22 22 22 21 21 21 22 22 22 22 21 20 19 19 18 17 17 17 17 17 17 17 17 17 16 15 15 14 14 14 15 16 16 16 16 15
26 27 27 26 25 24 24 25 23 24 24 23 23 23 23 23 22 21 20 20 19 18 18 18 18 18 18 17 17 17 17 17 16 16 16 15 14 14 15 16 16 15 15 15
28 29 29 28 26 25 26 25 24 24 24 24 24 25 24 23 22 22 21 20 19 19 18 18 18 18 18 17 17 17 16 16 17 17 16 15 15 15 15 16 16 15 15 15
29 30 29 28 27 27 27 26 26 26 25 25 25 25 24 24 23 22 22 21 20 20 19 18 18 18 18 18 17 17 17 17 17 17 17 17 17 16 16 16 15 16 16 16
29 29 29 29 29 28 28 28 28 27 27 26 26 24 24 24 23 23 22 21 21 21 21 20 20 19 19 18 18 18 18 18 18 19 19 19 18 18 17 17 17 17 17 18
29 29 28 28 29 30 29 29 29 27 27 27 27 26 25 25 24 24 23 23 22 22 22 21 21 20 20 19 19 19 19 19 19 20 20 20 20 20 19 19 19 19 19 19
29 29 29 29 29 30 30 30 29 28 28 28 27 27 27 27 26 26 25 24 24 24 23 22 22 21 21 21 21 20 20 20 20 21 20 20 21 21 21 21 21 21 21 20
29 29 29 29 29 29 29 29 29 29 29 29 29 28 28 27 27 26 26 25 25 24 24 23 23 23 23 22 22 22 22 21 21 21 21 21 21 21 21 22 22 22 22 22
30 30 30 30 30 29 29 29 29 29 29 30 30 29 28 28 27 27 27 26 26 25 24 24 25 24 24 23 23 23 22 22 22 22 21 21 22 22 22 22 23 23 23 23
30 30 31 30 30 30 30 29 29 29 30 30 30 29 29 28 28 28 28 27 27 26 26 26 25 25 25 25 25 24 24 23 23 23 23 23 23 23 23 23 23 24 24 25
31 31 31 30 30 30 30 29 29 28 30 31 31 30 29 28 28 28 28 28 28 27 27 27 26 26 26 26 26 25 25 25 24 24 24 25 25 25 24 24 24 25 26 26
30 30 30 30 29 30 30 31 30 29 30 30 30 30 28 28 28 27 28 28 29 29 28 27 27 27 27 26 26 26 26 26 26 26 26 26 26 26 26 26 26 26 26 27
30 30 30 30 30 30 30 30 31 30 30 29 28 28 28 28 28 27 28 28 29 29 29 28 27 27 27 27 27 27 27 27 28 28 27 27 28 28 27 27 27 27 27 27
30 29 29 29 29 29 30 30 30 29 29 28 28 28 28 28 28 28 27 27 28 28 28 28 28 29 29 29 28 28 28 28 29 29 29 29 29 28 28 28 28 28 28 28
30 29 29 29 29 29 28 28 28 28 28 29 28 29 29 28 28 28 28 27 27 27 28 29 30 30 30 30 30 29 29 29 29 29 30 30 29 29 28 28 29 28 28 28
30 29 29 29 28 28 27 27 27 27 26 27 28 28 28 28 28 28 28 28 28 29 29 30 30 31 31 31 30 30 30 30 30 30 30 30 30 30 30 30 30 30 29 29
29 28 28 28 29 28 27 27 27 27 26 26 27 28 28 28 28 29 29 29 29 30 30 30 30 30 31 31 31 31 31 31 30 30 30 30 30 30 30 31 31 31 31 30
28 28 27 27 28 27 26 26 26 26 26 26 26 26 27 27 28 28 29 30 30 30 30 30 30 30 31 32 31 31 31 31 31 31 31 31 30 30 30 31 31 31 31 31
27 27 27 28 27 27 26 26 27 27 27 25 25 26 26 27 27 28 28 29 29 29 30 31 31 30 30 31 31 31 31 31 31 30 31 31 31 31 31 31 31 32 32 32
27 27 27 27 27 27 27 27 27 27 27 26 26 26 27 27 27 27 28 28 28 29 29 29 30 30 30 31 32 32 31 31 31 31 32 32 32 31 31 31 31 31 31 31
28 28 28 27 26 27 27 27 27 27 27 26 26 27 27 28 27 27 27 27 27 28 28 29 29 30 30 31 32 32 32 32 32 32 32 32 32 31 31 30 31 31 31 31
28 28 28 27 27 27 27 28 27 27 27 27 28 27 27 27 27 27 27 28 28 28 28 29 29 30 31 31 31 32 32 32 31 31 31 31 31 31 31 31 31 31 31 32
28 28 29 28 28 28 28 28 28 28 27 28 28 28 28 28 28 28 28 28 28 29 29 29 30 30 30 30 30 30 30 30 30 30 30 30 30 31 31 31 31 31 32 32

GEFSNGP_500_meanwind_240.txt.gz
Wind_Speed
19 18 18 18 17 17 19 19 20 18 19 18 19 18 17 17 16 17 16 16 16 16 16 16 16 15 15 16 16 17 16 16 16 16 16 15 15 16 15 15 15 15 16 16
20 20 20 19 17 18 19 20 21 20 19 19 20 19 19 18 18 18 18 18 17 16 16 17 17 17 16 16 17 17 17 17 16 16 16 16 16 16 16 16 16 16 16 16
21 21 22 21 19 19 20 20 21 21 19 19 20 20 19 18 17 18 18 18 17 17 17 16 17 17 17 17 17 17 17 17 17 17 17 17 17 16 16 16 16 16 16 16
23 23 25 22 21 21 21 21 21 21 20 20 20 20 19 19 19 19 19 18 18 18 17 17 17 17 17 17 16 17 17 16 17 17 18 17 17 16 16 17 17 17 16 15
25 25 26 24 22 22 22 22 22 22 21 21 21 21 20 21 21 21 20 19 18 18 18 18 18 18 18 17 16 17 17 17 17 18 18 18 17 16 16 16 16 16 16 16
27 27 28 24 24 24 24 23 22 23 22 21 21 21 20 22 21 21 21 20 19 19 19 19 18 18 18 18 17 17 17 17 18 18 19 18 18 17 17 17 17 16 17 16
27 28 28 25 24 25 25 23 23 23 23 22 22 21 21 21 21 21 21 20 20 20 20 19 19 18 18 18 18 17 17 17 18 18 19 19 18 18 18 17 17 17 17 16
27 27 26 25 25 25 25 24 24 23 24 23 23 22 22 22 22 22 21 21 21 21 20 20 19 19 19 19 19 19 18 18 18 19 19 20 20 19 19 18 18 17 17 17
27 27 26 26 26 26 26 26 25 25 25 25 24 23 23 23 23 23 22 22 21 21 21 21 21 21 21 20 20 19 19 20 20 20 20 20 20 21 20 20 20 19 19 19
27 27 27 26 26 27 27 27 27 26 26 25 25 25 24 24 24 24 23 23 22 23 23 22 22 23 22 22 21 21 21 21 21 21 22 21 21 22 22 21 21 21 21 20
28 27 28 27 27 27 27 28 28 28 28 27 27 27 26 26 25 25 25 25 24 24 24 23 23 23 23 23 22 22 22 22 22 22 23 23 23 22 22 23 23 22 22 22
28 28 28 27 28 27 27 28 28 28 28 27 27 27 26 26 26 25 25 26 26 25 25 24 24 24 24 24 24 24 23 23 23 23 23 24 24 24 24 24 24 24 23 24
28 28 28 27 28 27 27 28 28 29 29 28 28 27 27 27 27 27 27 26 26 25 25 24 24 24 24 25 24 25 25 25 24 24 24 24 24 24 24 24 25 25 25 25
29 28 28 28 28 28 28 28 29 29 29 29 29 28 27 27 27 26 26 27 27 26 26 25 25 25 26 26 26 26 26 26 26 25 25 24 24 24 24 24 25 25 26 25
29 29 28 28 28 28 29 28 28 28 28 28 28 28 28 28 28 27 28 28 27 27 28 27 27 26 27 27 27 27 27 27 27 27 26 26 26 26 26 26 26 26 26 26
30 29 29 29 29 29 29 28 27 27 27 28 28 28 28 27 27 28 28 28 28 28 28 28 27 27 27 27 27 27 27 28 29 28 28 27 27 27 27 27 27 28 28 28
30 30 30 29 29 30 30 29 28 28 28 28 28 28 28 27 26 26 27 27 28 28 28 28 27 27 27 27 27 27 27 28 28 29 28 28 28 28 28 28 28 28 29 29
30 30 30 30 30 30 30 29 28 28 28 29 29 29 28 28 27 27 27 27 28 28 28 28 28 27 26 26 27 27 28 27 28 28 28 28 27 27 28 28 29 29 29 29
29 30 30 30 30 31 31 30 29 29 29 29 29 29 28 28 28 28 28 28 27 27 27 28 28 27 27 26 27 27 27 27 28 28 28 27 27 27 28 29 30 30 30 30
28 29 30 30 31 31 31 30 30 30 29 29 28 28 28 27 27 27 26 26 26 26 26 27 27 28 28 27 27 27 27 28 28 28 28 28 28 28 29 29 30 31 31 31
28 29 30 30 30 31 31 30 30 30 29 28 28 28 27 27 26 26 26 25 25 26 27 27 28 28 28 28 28 28 28 28 28 29 29 29 29 29 29 29 30 30 30 30
28 29 30 30 30 30 31 31 30 30 29 29 28 28 27 25 25 25 25 25 25 26 26 27 27 28 28 28 29 29 29 29 29 29 29 30 30 29 29 30 30 30 30 31
28 29 29 29 30 31 31 30 30 29 29 28 27 27 26 25 24 24 24 25 25 26 26 27 27 27 28 29 29 29 29 29 29 28 29 29 30 30 31 31 31 31 31 31
28 29 29 29 30 30 29 29 29 28 28 27 27 27 26 26 24 24 24 25 26 27 28 27 27 28 28 29 29 29 29 29 30 30 30 30 31 31 31 31 31 31 31 31
29 29 29 29 29 29 29 29 29 29 29 28 27 28 27 27 27 26 26 26 26 27 27 28 28 28 29 29 29 29 30 30 30 30 30 31 31 31 31 31 32 32 32 32
29 29 30 29 29 28 29 29 29 29 29 28 28 28 28 28 28 28 28 28 27 27 27 28 28 28 29 29 29 30 30 30 30 30 30 30 31 31 31 31 31 31 31 31
29 29 29 28 28 28 28 28 28 28 29 28 28 29 29 28 28 29 29 28 28 28 28 28 28 29 29 29 30 30 30 30 30 29 30 30 31 31 32 32 32 32 32 32

GEFSNGP_500_meanwind_246.txt.gz
Wind_Speed
20 20 20 19 20 20 20 20 21 19 19 19 19 20 20 20 20 19 19 19 19 20 18 18 18 18 18 17 17 17 17 17 18 18 18 18 18 18 18 18 18 18 19 19
21 21 21 21 20 20 21 21 21 20 19 20 20 21 21 21 20 20 20 20 20 20 19 18 17 17 18 18 18 18 19 19 19 19 19 19 19 19 19 19 19 18 18 18
24 23 23 22 21 22 22 22 22 22 21 21 21 21 21 21 21 21 21 21 21 20 20 20 19 18 18 19 19 19 20 20 20 20 20 20 20 20 20 20 19 18 19 19
25 25 25 22 21 22 23 23 23 23 23 23 22 22 22 22 22 22 22 22 21 21 21 20 20 20 19 19 19 20 20 20 20 21 21 21 21 21 21 20 20 19 19 19
26 27 25 23 22 23 24 24 23 24 23 23 23 23 22 22 22 22 22 23 22 22 22 22 21 21 21 20 20 20 21 21 21 21 21 21 21 21 21 21 20 19 19 19
26 27 27 24 23 24 25 25 23 24 23 23 24 23 23 23 23 23 23 23 23 23 22 22 22 21 21 21 21 20 20 20 20 20 20 20 20 20 20 21 20 20 20 19
27 28 28 26 24 24 25 24 24 24 24 24 24 23 23 23 23 23 24 23 23 23 23 23 23 22 22 22 21 21 20 20 19 19 19 20 20 20 21 21 21 21 21 20
27 28 27 26 26 25 24 25 25 25 25 25 25 25 24 24 24 24 24 24 24 23 23 23 22 22 23 23 21 21 20 20 19 19 19 20 20 20 20 21 21 21 21 21
27 28 27 27 26 26 26 26 26 26 26 26 25 26 25 25 24 24 24 24 24 23 23 22 22 22 23 22 22 21 21 20 20 21 21 21 21 21 21 22 22 22 23 23
28 28 28 28 28 27 27 27 27 26 26 27 26 26 26 25 24 24 24 23 23 23 23 23 23 23 23 23 23 23 22 22 22 22 22 23 22 22 23 23 23 23 23 23
29 28 28 28 28 28 28 28 28 28 28 28 27 26 26 25 24 23 23 24 24 24 24 24 24 24 24 24 24 24 24 24 24 24 24 23 23 23 23 23 23 23 24 24
29 29 29 28 28 29 29 29 29 28 27 27 27 27 26 25 25 24 24 25 25 25 25 25 26 25 25 25 25 25 25 25 25 25 25 25 25 25 25 25 25 25 25 24
30 30 29 28 29 29 30 29 29 29 28 27 27 27 27 27 27 26 26 26 26 27 27 27 27 27 26 26 25 25 26 26 26 26 26 26 26 26 26 26 26 26 25 25
30 30 30 29 29 29 30 30 30 29 28 28 27 27 28 27 27 27 27 28 28 28 28 28 28 27 27 26 26 26 27 27 27 27 27 27 27 27 28 28 27 27 26 26
30 30 30 30 30 29 30 30 30 29 29 29 28 28 27 27 28 28 28 28 28 28 28 28 28 28 28 27 27 27 28 28 28 28 28 28 28 28 28 28 27 27 26 26
30 31 30 30 29 29 29 29 29 28 28 28 27 27 27 27 28 28 28 29 28 28 29 29 29 28 28 28 28 27 27 27 27 28 28 29 29 29 28 28 28 28 27 28
30 30 30 29 29 29 29 29 28 29 28 27 27 27 27 27 28 28 28 28 28 28 28 28 28 27 28 28 28 28 28 27 27 27 28 28 29 29 29 29 28 28 28 29
30 30 30 29 29 29 29 29 29 29 29 29 28 28 27 27 27 27 27 27 27 27 27 28 27 27 28 29 29 29 29 29 29 29 29 28 29 29 29 29 29 29 29 29
28 29 29 28 28 28 29 28 28 29 29 29 29 28 28 27 28 27 28 28 28 28 27 27 28 28 29 29 29 29 30 30 29 29 29 30 29 29 29 29 29 30 30 30
27 28 29 28 28 28 28 28 28 28 28 28 29 29 29 29 29 30 30 29 28 28 28 28 28 28 29 29 29 29 29 29 29 29 30 30 30 30 30 31 31 31 30 30
28 28 28 28 28 28 28 28 28 28 28 28 29 30 30 30 30 30 30 30 29 29 29 28 28 29 29 29 29 29 29 29 29 29 30 31 30 30 30 30 30 31 31 31
29 29 29 29 29 29 29 29 29 29 29 30 30 30 30 31 31 31 30 30 30 29 29 28 28 28 29 29 30 29 29 29 30 30 31 31 30 29 30 30 30 31 31 32
29 30 31 30 30 29 30 31 31 30 30 30 31 31 31 31 31 31 30 30 30 29 29 29 28 29 29 29 29 29 29 30 30 31 31 31 31 31 31 31 31 31 32 32
30 31 32 31 30 30 30 31 31 31 31 31 32 32 32 31 30 30 30 30 30 30 29 29 29 29 29 29 29 29 29 30 30 30 31 31 31 31 31 31 31 32 31 31
29 30 32 32 31 30 30 30 31 31 31 31 31 31 30 29 29 29 30 30 30 30 30 29 29 29 29 28 28 28 28 29 29 30 30 30 31 31 30 30 30 31 30 31
30 30 31 32 32 32 31 31 31 31 32 32 32 31 30 29 29 29 29 29 29 29 29 29 29 28 28 28 28 28 28 28 28 29 29 30 30 30 31 31 30 29 29 30
31 31 31 32 32 32 31 31 31 31 31 30 29 28 28 28 28 28 28 28 29 29 29 29 29 29 28 28 28 29 28 28 28 28 28 29 29 29 29 30 29 29 29 30

GEFSNGP_500_meanwind_252.txt.gz
Wind_Speed
17 17 18 17 17 17 17 18 19 19 19 19 19 19 19 19 19 19 19 20 20 19 19 19 19 19 19 18 17 17 17 17 18 19 19 19 19 19 20 20 20 20 19 19
19 19 19 19 19 19 18 19 19 20 19 20 20 21 20 19 20 20 20 21 21 20 20 20 20 20 19 19 19 19 19 19 19 20 20 20 20 20 20 20 20 20 20 20
21 21 21 20 19 20 20 19 20 21 20 21 21 21 20 19 20 20 20 21 21 21 21 21 21 20 20 20 20 20 20 20 20 21 21 21 21 21 21 21 21 21 20 20
23 23 23 21 21 21 21 21 22 22 21 21 21 21 21 20 20 20 20 20 21 21 21 22 22 21 21 21 20 20 20 20 20 21 21 21 21 21 21 21 21 21 20 20
24 24 24 22 22 22 22 23 22 21 21 21 20 21 22 21 21 21 22 22 22 22 22 22 22 22 21 21 21 21 21 21 20 20 21 21 20 20 20 20 21 21 20 20
25 25 24 24 23 22 23 23 21 21 21 20 21 21 22 22 22 22 22 22 22 22 22 22 22 22 22 21 22 22 22 22 22 21 21 21 21 20 20 20 21 21 21 21
26 26 26 25 24 23 23 23 22 22 21 21 21 21 22 22 22 22 23 23 23 23 22 22 22 22 22 22 22 22 22 22 22 22 21 21 21 20 21 21 21 21 22 22
27 27 26 25 25 24 24 24 23 23 22 22 22 22 22 22 22 22 23 23 23 22 22 22 22 22 22 22 22 22 22 22 22 21 21 21 21 21 21 22 22 22 22 22
26 27 27 26 26 25 25 25 24 24 23 23 23 22 22 22 22 22 22 22 22 22 21 21 22 22 22 23 23 22 22 22 22 22 22 22 22 22 22 22 23 23 22 22
26 26 27 27 26 26 26 26 25 25 24 24 23 23 23 23 22 22 22 22 21 22 22 22 22 22 23 24 24 24 23 23 23 22 22 23 23 24 23 23 24 23 23 23
27 26 26 26 27 27 26 27 27 26 25 24 24 24 24 23 23 22 21 22 23 23 23 23 23 23 24 24 25 25 26 25 25 24 24 24 24 24 24 24 24 24 24 24
26 26 27 27 27 27 27 27 27 27 27 26 25 24 24 24 23 23 23 23 23 24 24 25 25 25 25 25 25 26 27 27 27 26 26 26 26 26 26 25 25 25 25 25
27 27 27 27 27 27 27 28 28 28 27 26 25 25 24 24 24 24 24 24 24 24 25 26 26 26 26 26 26 26 26 27 27 27 28 27 27 27 27 27 27 26 26 26
28 28 28 28 28 27 27 28 28 27 27 26 26 25 25 25 26 25 25 25 25 25 26 26 27 27 26 26 27 26 26 27 27 28 28 28 28 27 27 27 27 27 27 27
29 29 29 28 28 28 28 28 28 28 27 27 26 26 26 26 26 25 25 25 26 26 25 26 26 27 27 26 27 27 27 26 26 27 28 28 28 28 28 27 27 27 26 27
29 30 29 29 29 29 29 29 29 28 28 27 27 27 27 27 26 25 25 25 26 26 25 26 26 27 27 27 27 27 27 27 27 27 27 27 27 27 27 27 27 27 27 27
28 29 29 29 29 29 29 29 29 29 28 28 28 27 27 27 27 26 26 26 26 27 26 26 27 27 27 27 27 28 28 28 28 27 27 27 28 28 28 28 28 28 27 27
27 28 28 29 29 29 30 29 29 28 28 28 28 28 27 26 26 26 26 26 26 27 27 28 28 28 28 29 29 28 28 28 28 28 28 28 28 28 28 28 29 29 29 28
27 27 27 27 27 28 28 28 28 28 27 27 27 27 27 27 27 27 26 26 27 27 27 28 28 28 29 29 29 29 29 28 28 28 28 28 29 29 29 29 29 29 29 30
26 26 26 26 26 26 27 27 27 26 26 26 26 26 26 27 27 27 27 27 27 28 29 29 29 29 29 30 30 29 29 29 29 29 29 29 29 29 29 29 29 29 30 30
26 25 26 26 26 26 25 25 25 25 25 26 25 25 26 26 26 27 27 27 28 29 29 30 30 30 30 30 30 30 29 29 29 29 29 29 29 29 28 29 29 30 30 30
26 25 26 26 27 26 26 25 25 25 25 26 26 26 26 26 26 27 27 27 28 29 29 30 30 30 30 30 30 30 29 29 28 28 28 28 28 28 29 29 30 30 31 31
27 26 27 27 27 26 26 26 26 26 26 26 26 27 28 28 28 28 27 27 27 28 29 29 30 30 29 29 29 29 29 29 28 28 28 28 28 28 28 29 29 29 29 30
27 27 27 28 28 28 28 27 27 27 27 27 27 28 28 28 28 28 28 28 28 28 28 29 29 29 29 29 29 29 28 28 28 28 28 28 28 28 28 28 29 29 29 29
27 28 28 29 29 29 28 28 28 28 28 28 28 29 29 28 28 28 28 27 27 27 27 28 28 28 29 29 29 28 27 27 27 27 27 27 27 27 27 28 29 29 29 29
28 28 29 30 30 29 29 29 30 29 29 29 29 30 29 29 28 28 28 27 26 26 27 27 27 27 27 27 27 28 27 27 27 28 28 28 28 28 27 28 28 28 28 28
29 29 29 29 29 29 30 30 30 30 30 30 30 30 30 29 29 29 28 27 27 27 27 27 27 27 27 27 28 28 28 28 28 28 28 28 28 28 28 28 28 28 28 28

GEFSNGP_500_meanwind_258.txt.gz
Wind_Speed
20 20 21 22 21 21 21 21 22 21 22 22 24 24 24 24 24 24 23 23 22 21 21 21 21 20 20 20 20 19 19 19 19 19 19 19 20 20 20 20 20 20 20 20
21 21 22 22 22 22 21 22 22 23 23 23 25 26 25 24 24 24 23 23 23 22 22 22 22 22 21 21 21 20 20 20 19 19 20 20 20 20 21 21 21 21 21 21
22 22 23 21 21 22 22 22 23 23 23 23 24 25 26 25 25 24 24 24 24 24 23 22 23 23 22 22 22 21 20 20 20 20 20 21 21 21 21 21 22 22 22 21
23 23 24 21 21 22 22 23 23 24 24 24 25 25 25 25 25 25 24 24 24 25 24 23 23 23 23 23 23 22 21 21 21 21 21 22 21 22 22 22 22 22 22 22
23 24 25 22 22 23 23 24 24 24 25 24 25 25 25 25 25 24 23 24 24 24 25 24 24 24 23 23 23 22 22 22 23 23 23 22 22 22 22 22 22 23 23 22
25 25 25 24 23 24 24 24 24 24 25 25 26 26 25 25 25 24 24 24 24 25 25 25 24 24 24 23 23 23 23 23 23 23 23 23 23 24 24 23 23 22 22 22
26 27 27 25 25 25 25 25 25 25 25 26 26 26 26 26 26 25 25 25 25 24 25 25 24 24 24 24 24 24 24 24 24 24 24 24 24 24 24 24 24 23 23 23
26 27 27 26 26 26 27 27 26 26 25 25 26 26 26 26 26 26 25 25 25 24 24 24 23 24 24 24 24 24 24 24 24 24 24 24 25 25 25 24 24 24 25 25
28 28 28 28 28 27 27 27 27 27 27 27 27 27 27 27 27 27 26 26 26 25 25 23 22 23 23 24 24 24 23 24 24 25 25 25 25 25 24 25 25 25 26 26
29 29 28 27 28 27 27 28 28 28 28 29 29 29 28 29 29 28 27 27 26 25 24 23 23 23 23 24 24 23 23 23 24 24 25 25 25 25 25 26 26 26 26 26
28 29 29 28 28 28 28 29 29 29 29 29 29 29 29 29 29 29 28 27 26 26 25 24 23 23 23 24 24 24 24 24 25 25 26 25 25 25 25 26 26 26 26 26
28 29 31 30 30 28 29 30 30 29 29 29 29 29 29 29 29 28 28 27 27 27 26 25 24 24 24 24 25 25 25 26 26 26 26 25 25 24 25 25 25 25 26 26
29 30 30 30 30 29 29 30 31 30 29 29 29 29 28 29 29 28 26 27 27 27 26 26 26 25 25 25 26 26 26 26 26 26 26 26 26 26 27 27 27 27 27 27
30 30 30 29 30 29 29 29 30 30 30 30 30 30 29 29 29 28 27 27 27 27 26 27 27 27 26 26 27 27 26 26 26 26 27 27 28 28 28 28 28 28 28 28
30 31 31 31 31 31 30 31 31 31 31 31 31 31 30 30 29 29 28 28 28 28 28 28 28 28 28 27 28 27 26 26 26 27 27 28 28 29 28 28 28 28 28 29
30 30 31 31 31 31 31 31 32 32 32 32 32 31 31 30 30 29 29 29 29 29 29 29 28 28 28 28 27 27 27 28 28 28 28 28 28 29 28 28 28 28 29 29
31 31 31 31 31 31 31 31 32 32 32 31 31 31 31 31 31 30 30 30 30 30 29 28 28 27 27 27 28 28 28 29 29 29 29 29 28 28 28 28 29 28 29 29
31 31 31 31 31 31 31 31 31 32 32 32 32 31 31 31 31 30 30 30 29 29 29 28 28 27 28 28 28 28 28 29 30 30 30 30 29 28 28 28 28 29 28 29
31 31 30 30 30 31 30 30 31 31 32 32 31 31 30 30 30 29 29 29 29 28 29 29 28 28 28 28 28 28 28 29 29 30 30 29 29 29 29 29 29 29 29 29
29 29 30 30 30 30 30 31 31 31 31 31 31 31 31 30 30 30 29 28 28 28 28 28 28 28 28 28 28 28 28 29 29 30 30 29 29 29 29 29 29 29 29 29
29 29 29 29 30 30 30 31 31 30 30 30 31 31 31 30 29 29 29 29 28 28 28 28 28 28 28 28 28 28 28 28 29 29 29 29 29 29 30 30 30 30 29 29
28 28 28 29 29 30 30 30 30 30 30 30 30 30 30 29 28 28 29 28 28 28 28 28 28 28 28 28 28 28 28 28 28 29 29 29 29 29 29 29 30 29 29 29
28 28 28 29 30 30 31 31 31 30 30 29 29 29 29 29 29 28 28 28 28 28 28 27 28 28 28 27 27 27 27 27 27 27 28 29 29 29 29 29 30 30 30 30
29 29 29 30 30 30 30 30 30 30 30 30 30 29 29 29 29 29 29 28 29 28 28 27 27 27 27 27 27 27 27 27 27 27 27 28 28 28 29 30 30 30 30 30
31 30 30 31 31 31 31 31 31 31 31 31 30 30 30 30 29 29 29 28 28 28 27 27 27 27 28 28 28 28 27 27 28 28 28 28 29 29 29 29 29 29 29 30
31 31 31 31 32 32 32 32 32 32 32 31 31 31 31 31 30 30 29 29 28 28 28 28 28 28 28 28 28 28 28 29 29 29 29 29 29 29 28 28 28 28 29 29
32 32 31 31 32 32 32 33 33 33 33 32 32 31 31 31 31 30 30 30 30 29 29 29 29 29 29 29 29 29 30 30 30 30 30 30 30 29 28 28 28 28 28 29

GEFSNGP_500_meanwind_264.txt.gz
Wind_Speed
17 17 17 17 17 18 19 20 20 19 19 18 19 20 20 20 21 20 20 21 20 20 20 20 20 20 20 21 21 20 19 19 19 19 19 19 18 18 17 17 17 17 18 19
19 19 19 18 18 19 19 20 20 20 20 20 20 20 20 20 20 20 20 20 20 20 21 21 21 21 22 22 22 22 21 20 19 19 19 19 19 19 19 19 19 18 19 20
19 19 19 19 19 19 19 19 20 20 21 20 21 20 20 20 20 20 20 20 21 21 21 22 22 22 22 22 22 21 20 20 20 20 20 19 20 20 20 20 20 20 20 20
21 20 20 18 19 19 19 19 19 20 21 21 20 20 20 20 20 21 21 21 22 22 23 23 23 23 23 22 22 21 21 21 21 20 20 20 21 21 21 22 22 22 21 21
21 21 20 18 19 19 19 19 20 20 21 21 21 21 20 20 21 22 22 22 22 23 23 23 23 23 23 22 23 22 22 21 21 22 22 22 22 22 23 23 23 23 22 22
23 22 21 19 20 20 20 20 20 21 21 22 22 22 22 22 22 23 23 23 23 23 23 23 23 23 23 23 23 23 23 23 22 23 23 23 23 23 23 23 23 23 23 23
24 24 23 21 21 21 21 21 21 22 22 22 23 24 24 24 24 24 24 25 24 24 23 23 23 23 24 23 23 23 23 23 23 23 22 23 23 23 23 23 24 24 24 24
25 25 23 22 22 22 22 22 22 23 23 23 24 24 24 24 24 24 24 25 24 24 24 23 23 23 23 23 23 23 23 23 22 23 23 23 24 24 24 24 25 25 25 25
25 24 24 23 22 22 23 23 23 23 24 24 24 24 24 24 24 25 25 25 25 24 24 24 23 23 23 23 23 23 23 23 23 23 23 24 24 24 24 24 24 24 25 25
25 24 25 25 24 24 24 24 24 24 25 25 24 24 24 25 25 25 25 25 25 25 25 25 24 24 23 23 23 22 22 23 23 23 24 24 24 24 24 24 24 24 24 24
26 25 25 25 25 25 25 25 25 25 25 25 26 25 25 26 26 26 26 26 26 26 26 25 25 24 24 23 23 23 23 23 23 24 24 24 24 24 24 24 23 23 23 23
27 27 27 25 25 26 25 25 25 26 26 26 26 26 26 26 26 27 27 26 26 26 26 26 25 25 24 23 23 23 24 25 25 25 25 25 25 24 23 23 23 24 24 24
27 27 27 26 26 27 27 27 27 27 26 27 27 27 27 26 27 27 27 27 27 27 26 26 25 25 24 24 24 24 24 25 26 26 26 25 25 24 24 24 24 25 25 26
28 28 27 27 27 27 28 28 28 27 27 27 27 27 27 27 27 27 27 27 26 26 26 26 26 25 24 24 25 25 25 25 25 25 25 25 25 25 25 25 25 26 26 27
29 29 29 28 27 27 28 28 28 27 27 27 27 28 28 27 27 27 27 27 27 27 27 27 27 26 25 25 25 25 25 25 25 25 25 25 25 25 25 26 26 27 27 27
29 29 29 29 28 28 29 29 29 28 28 27 28 28 28 28 28 28 28 29 29 28 27 27 27 27 26 26 26 26 25 25 25 25 25 25 25 25 26 26 26 26 27 27
29 29 29 29 29 29 30 30 30 29 28 28 28 28 28 28 28 28 28 28 28 28 27 27 26 26 25 26 26 26 26 26 26 26 25 25 25 25 26 26 27 27 27 27
29 29 29 29 29 29 29 29 29 29 29 28 28 28 28 28 28 28 28 28 28 28 27 26 26 26 25 25 25 25 25 25 26 27 27 27 26 26 27 26 26 27 26 26
29 29 29 29 29 29 29 29 29 29 29 29 29 29 28 28 28 28 28 28 28 27 27 27 26 26 26 26 26 26 27 27 27 27 27 27 27 27 27 27 27 28 28 28
28 29 30 30 30 30 30 29 28 28 29 29 30 30 30 30 30 29 29 29 28 28 27 27 27 27 26 26 27 27 27 27 27 27 27 27 27 28 28 28 28 28 28 28
29 29 30 30 30 30 30 29 28 28 29 30 30 30 31 31 31 30 29 29 28 28 28 28 27 27 27 27 27 27 27 27 27 27 27 27 27 28 28 28 28 28 28 28
29 30 30 30 30 30 30 30 30 29 29 30 30 30 31 31 31 30 30 29 29 29 28 28 28 29 29 28 28 28 28 27 27 27 27 27 27 26 27 27 28 28 28 28
29 29 30 30 29 29 29 29 30 30 30 30 30 30 31 30 30 30 29 29 29 29 28 28 29 29 29 29 29 28 28 28 27 27 27 26 26 26 26 27 27 27 28 28
28 29 30 30 30 30 29 28 29 29 30 30 30 31 30 30 31 31 30 29 29 29 28 29 29 29 29 28 28 28 28 28 28 27 27 26 26 26 27 27 27 27 27 28
29 29 29 30 29 29 28 28 28 28 29 30 30 31 31 31 31 31 30 30 30 29 29 29 29 29 29 28 28 28 28 28 29 28 27 26 27 27 28 28 27 27 27 27
29 29 29 29 29 29 29 28 28 29 29 30 30 31 31 32 32 32 31 30 31 31 30 30 30 29 29 29 28 28 28 28 27 27 27 27 28 28 28 28 28 28 27 28
29 29 29 29 29 30 30 29 29 29 30 30 31 31 32 32 32 32 32 31 31 31 31 30 30 30 30 29 29 29 28 28 27 27 27 28 28 29 29 29 28 27 27 27

GEFSNGP_500_meanwind_270.txt.gz
Wind_Speed
20 20 20 19 20 20 21 21 21 20 20 19 19 19 19 19 19 19 19 19 20 20 20 20 20 20 20 20 21 21 20 20 20 21 21 21 21 21 22 22 22 21 21 21
21 21 21 21 20 21 21 21 21 21 20 20 19 19 19 19 19 19 20 21 21 21 21 21 21 21 21 22 22 21 21 20 20 21 21 22 22 22 22 22 22 21 21 21
22 23 23 22 21 21 21 21 21 21 20 20 20 20 20 20 20 21 21 22 22 22 22 22 22 22 22 22 22 21 21 21 21 21 21 21 21 22 22 22 22 21 20 21
24 24 24 22 21 22 22 22 22 21 21 21 21 21 21 21 21 22 22 22 22 23 23 23 23 23 22 22 22 22 21 21 22 21 21 21 21 21 21 22 21 21 21 22
25 26 24 22 22 22 22 21 21 21 21 22 22 22 22 22 22 23 23 23 23 23 23 24 24 24 23 22 22 21 21 21 21 21 21 21 21 22 22 22 22 22 22 22
26 26 24 22 23 23 23 22 22 22 22 23 22 22 22 23 23 23 24 24 24 24 24 24 24 24 24 23 22 21 21 20 20 20 21 21 22 22 22 22 23 23 23 24
27 27 25 23 24 24 24 23 23 23 23 23 23 23 23 23 23 23 24 24 25 25 24 24 24 24 23 22 22 22 21 20 20 21 21 22 22 22 23 23 24 24 24 24
27 27 26 24 24 24 24 24 24 24 24 24 24 24 23 24 24 24 25 25 25 25 24 24 23 23 22 22 22 22 21 21 21 21 22 23 23 24 24 25 25 25 25 24
28 27 26 25 26 25 25 25 24 24 24 24 25 25 25 25 25 25 26 26 25 25 25 24 24 23 23 22 22 22 22 22 22 22 22 23 24 24 25 26 26 26 26 25
29 28 27 27 26 26 26 26 25 25 25 25 25 26 26 25 25 26 26 26 26 25 25 25 24 24 23 23 23 23 23 23 23 23 23 24 24 25 26 26 27 26 26 26
29 28 29 28 27 26 26 26 25 25 25 26 26 26 26 26 26 26 26 26 26 26 25 25 24 24 24 24 24 24 24 24 24 24 24 24 25 26 26 26 26 26 26 26
30 29 29 28 27 27 27 26 26 26 26 26 26 26 26 26 26 26 26 26 26 26 26 25 25 25 25 25 25 24 24 24 24 25 25 25 26 26 26 26 26 26 27 27
29 30 30 29 28 28 28 28 28 27 27 28 28 27 27 27 27 27 27 27 27 27 27 26 26 26 26 26 26 26 26 26 26 26 26 26 26 27 26 26 26 26 27 27
30 30 31 30 29 29 29 29 29 29 29 29 29 28 28 28 28 28 28 28 28 28 28 27 27 27 27 27 27 27 27 27 27 27 27 27 27 27 27 27 27 26 27 27
30 31 31 31 30 30 30 30 30 29 29 29 29 29 29 29 29 29 29 29 29 29 29 29 28 29 28 28 28 28 28 28 28 28 28 28 28 28 27 27 27 27 26 26
31 32 32 32 32 31 31 31 30 30 30 29 29 30 30 29 29 30 30 29 29 29 29 29 29 29 29 29 29 29 28 28 29 29 29 29 28 28 28 28 28 27 27 27
31 32 33 33 32 32 32 32 31 31 31 31 30 30 30 30 30 30 30 30 30 30 29 29 30 29 29 29 29 30 30 29 29 29 30 30 29 28 28 27 28 28 27 28
31 32 32 32 32 33 33 32 32 32 31 31 31 31 30 30 30 30 30 30 30 30 30 30 30 30 30 30 30 30 29 30 30 30 31 30 29 28 28 28 28 28 28 28
31 32 32 32 32 32 32 32 32 32 32 31 31 31 31 31 30 30 30 31 31 30 30 30 30 30 30 30 30 30 30 30 31 31 31 30 30 29 29 29 30 29 29 28
29 29 30 30 30 31 31 31 31 31 31 31 31 31 31 31 31 31 31 31 31 30 30 31 30 30 30 30 31 30 31 31 31 30 30 30 29 29 29 30 30 30 29 30
29 29 30 30 30 31 31 31 31 31 30 31 31 31 31 31 31 31 31 31 31 31 31 31 31 31 30 30 31 31 31 31 30 30 30 30 30 29 29 29 29 30 30 30
29 29 30 30 30 31 31 31 31 31 31 31 31 31 32 31 32 31 31 31 31 31 31 31 31 31 31 31 31 30 30 30 30 30 30 29 29 29 29 30 29 29 29 29
28 29 29 29 29 30 30 30 31 31 31 30 31 31 32 32 32 31 30 31 32 32 32 32 32 32 31 31 31 31 31 30 30 30 30 29 29 29 30 29 29 29 29 29
28 28 28 29 29 29 29 29 30 30 30 30 31 31 32 32 32 32 32 32 32 33 33 32 32 32 31 31 31 31 31 31 31 30 30 30 29 29 29 29 29 29 28 27
28 28 28 28 28 28 28 28 29 29 29 29 30 31 31 31 31 30 31 31 32 32 32 32 32 32 32 31 31 31 31 30 30 30 30 30 29 29 29 29 28 28 28 27
28 28 28 28 29 29 29 29 29 30 30 30 30 30 31 31 30 30 30 30 30 31 31 31 31 31 31 31 31 30 30 29 29 30 30 30 30 30 30 30 29 29 29 29
28 29 29 30 30 30 30 31 31 31 31 31 31 31 30 30 30 30 31 31 31 31 31 31 31 31 31 31 31 30 29 29 29 29 29 30 30 30 30 29 29 29 28 28